Wetterdaten: Dienstag, 01.09.2026
Datum Zeit Temp. I. Temp. A. Feuchte I. Feuchte A. Luftdruck Regen Wind Richtung Richtung Sonnenschein Solar Taupunkt Windchill Windböen
01.09.2026 00:00 22,7 °C 15,7 °C 60 % 87 % 1014,9 hPa 0,0 l/m² 18,3 km/h (3 Bft) S-SW 213 ° 0 min 0 W/m² 13,5 °C 11,1 °C 24,1 km/h (4 Bft)
01.09.2026 00:02 22,7 °C 15,7 °C 60 % 87 % 1014,9 hPa 0,0 l/m² 16,1 km/h (3 Bft) S-SW 213 ° 0 min 0 W/m² 13,5 °C 11,7 °C 16,1 km/h (3 Bft)
01.09.2026 00:03 22,7 °C 15,6 °C 60 % 87 % 1015,0 hPa 0,0 l/m² 17,6 km/h (3 Bft) S-SW 213 ° 0 min 0 W/m² 13,4 °C 11,1 °C 22,5 km/h (4 Bft)
01.09.2026 00:05 22,7 °C 15,6 °C 60 % 87 % 1014,9 hPa 0,0 l/m² 18,3 km/h (3 Bft) S-SW 206 ° 0 min 0 W/m² 13,4 °C 11,0 °C 27,4 km/h (5 Bft)
01.09.2026 00:07 22,7 °C 15,6 °C 60 % 87 % 1014,9 hPa 0,0 l/m² 19,0 km/h (3 Bft) S-SW 198 ° 0 min 0 W/m² 13,4 °C 10,8 °C 25,7 km/h (4 Bft)
01.09.2026 00:09 22,7 °C 15,6 °C 60 % 87 % 1014,9 hPa 0,0 l/m² 15,4 km/h (3 Bft) S-SW 201 ° 0 min 0 W/m² 13,4 °C 11,8 °C 24,1 km/h (4 Bft)
01.09.2026 00:11 22,7 °C 15,5 °C 60 % 87 % 1014,9 hPa 0,0 l/m² 17,1 km/h (3 Bft) SW 215 ° 0 min 0 W/m² 13,3 °C 11,2 °C 24,1 km/h (4 Bft)
01.09.2026 00:12 22,7 °C 15,5 °C 60 % 87 % 1015,0 hPa 0,0 l/m² 16,8 km/h (3 Bft) SW 215 ° 0 min 0 W/m² 13,3 °C 11,2 °C 22,5 km/h (4 Bft)
01.09.2026 00:13 22,7 °C 15,4 °C 60 % 87 % 1014,9 hPa 0,0 l/m² 19,5 km/h (3 Bft) SW 223 ° 0 min 0 W/m² 13,2 °C 10,4 °C 22,5 km/h (4 Bft)
01.09.2026 00:15 22,7 °C 15,5 °C 60 % 87 % 1014,9 hPa 0,0 l/m² 16,6 km/h (3 Bft) SW 219 ° 0 min 0 W/m² 13,3 °C 11,3 °C 25,7 km/h (4 Bft)
01.09.2026 00:17 22,7 °C 15,4 °C 60 % 87 % 1014,9 hPa 0,0 l/m² 14,1 km/h (3 Bft) SW 215 ° 0 min 0 W/m² 13,2 °C 12,0 °C 19,3 km/h (3 Bft)
01.09.2026 00:19 22,7 °C 15,4 °C 60 % 87 % 1014,9 hPa 0,0 l/m² 16,7 km/h (3 Bft) SW 215 ° 0 min 0 W/m² 13,2 °C 11,2 °C 22,5 km/h (4 Bft)
01.09.2026 00:21 22,7 °C 15,4 °C 60 % 87 % 1015,0 hPa 0,0 l/m² 14,4 km/h (3 Bft) S-SW 208 ° 0 min 0 W/m² 13,2 °C 11,9 °C 19,3 km/h (3 Bft)
01.09.2026 00:22 22,7 °C 15,3 °C 60 % 87 % 1015,0 hPa 0,0 l/m² 13,1 km/h (3 Bft) S-SW 198 ° 0 min 0 W/m² 13,1 °C 12,2 °C 17,7 km/h (3 Bft)
01.09.2026 00:23 22,7 °C 15,4 °C 60 % 87 % 1015,0 hPa 0,0 l/m² 14,1 km/h (3 Bft) SW 235 ° 0 min 0 W/m² 13,2 °C 12,0 °C 17,7 km/h (3 Bft)
01.09.2026 00:25 22,7 °C 15,3 °C 60 % 87 % 1015,1 hPa 0,0 l/m² 14,7 km/h (3 Bft) SW 216 ° 0 min 0 W/m² 13,1 °C 11,7 °C 22,5 km/h (4 Bft)
01.09.2026 00:27 22,7 °C 15,3 °C 60 % 87 % 1015,1 hPa 0,0 l/m² 16,4 km/h (3 Bft) S-SW 197 ° 0 min 0 W/m² 13,1 °C 11,1 °C 22,5 km/h (4 Bft)
01.09.2026 00:29 22,7 °C 15,3 °C 60 % 88 % 1015,1 hPa 0,0 l/m² 12,9 km/h (3 Bft) S-SW 202 ° 0 min 0 W/m² 13,3 °C 12,3 °C 17,7 km/h (3 Bft)
01.09.2026 00:31 22,7 °C 15,2 °C 60 % 88 % 1015,1 hPa 0,0 l/m² 10,8 km/h (2 Bft) S-SW 208 ° 0 min 0 W/m² 13,2 °C 13,0 °C 17,7 km/h (3 Bft)
01.09.2026 00:33 22,7 °C 15,2 °C 60 % 88 % 1015,1 hPa 0,0 l/m² 11,4 km/h (2 Bft) S-SW 207 ° 0 min 0 W/m² 13,2 °C 12,7 °C 17,7 km/h (3 Bft)
01.09.2026 00:34 22,7 °C 15,2 °C 60 % 88 % 1015,1 hPa 0,0 l/m² 14,8 km/h (3 Bft) SW 219 ° 0 min 0 W/m² 13,2 °C 11,5 °C 16,1 km/h (3 Bft)
01.09.2026 00:35 22,7 °C 15,2 °C 60 % 88 % 1015,2 hPa 0,0 l/m² 9,7 km/h (2 Bft) S-SW 206 ° 0 min 0 W/m² 13,2 °C 13,5 °C 16,1 km/h (3 Bft)
01.09.2026 00:37 22,7 °C 15,1 °C 60 % 88 % 1015,2 hPa 0,0 l/m² 10,0 km/h (2 Bft) S-SW 207 ° 0 min 0 W/m² 13,1 °C 13,2 °C 14,5 km/h (3 Bft)
01.09.2026 00:39 22,7 °C 15,1 °C 60 % 88 % 1015,2 hPa 0,0 l/m² 11,9 km/h (2 Bft) SW 219 ° 0 min 0 W/m² 13,1 °C 12,4 °C 17,7 km/h (3 Bft)
01.09.2026 00:41 22,7 °C 15,1 °C 60 % 88 % 1015,2 hPa 0,0 l/m² 10,7 km/h (2 Bft) SW 229 ° 0 min 0 W/m² 13,1 °C 12,9 °C 14,5 km/h (3 Bft)
01.09.2026 00:42 22,7 °C 15,1 °C 60 % 88 % 1015,2 hPa 0,0 l/m² 14,6 km/h (3 Bft) SW 217 ° 0 min 0 W/m² 13,1 °C 11,4 °C 19,3 km/h (3 Bft)
01.09.2026 00:43 22,7 °C 15,1 °C 60 % 88 % 1015,2 hPa 0,0 l/m² 11,5 km/h (2 Bft) SW 229 ° 0 min 0 W/m² 13,1 °C 12,6 °C 14,5 km/h (3 Bft)
01.09.2026 00:45 22,7 °C 15,0 °C 60 % 88 % 1015,3 hPa 0,0 l/m² 14,5 km/h (3 Bft) SW 219 ° 0 min 0 W/m² 13,0 °C 11,4 °C 17,7 km/h (3 Bft)
01.09.2026 00:46 22,7 °C 15,0 °C 60 % 88 % 1015,3 hPa 0,0 l/m² 11,5 km/h (2 Bft) SW 219 ° 0 min 0 W/m² 13,0 °C 12,5 °C 17,7 km/h (3 Bft)
01.09.2026 00:47 22,7 °C 15,0 °C 60 % 88 % 1015,3 hPa 0,0 l/m² 10,1 km/h (2 Bft) SW 227 ° 0 min 0 W/m² 13,0 °C 13,1 °C 16,1 km/h (3 Bft)
01.09.2026 00:48 22,7 °C 14,9 °C 60 % 88 % 1015,3 hPa 0,0 l/m² 17,6 km/h (3 Bft) SW 234 ° 0 min 0 W/m² 12,9 °C 10,3 °C 20,9 km/h (4 Bft)
01.09.2026 00:50 22,7 °C 14,9 °C 60 % 88 % 1015,4 hPa 0,0 l/m² 13,6 km/h (3 Bft) SW 225 ° 0 min 0 W/m² 12,9 °C 11,6 °C 17,7 km/h (3 Bft)
01.09.2026 00:52 22,7 °C 14,9 °C 60 % 88 % 1015,4 hPa 0,0 l/m² 12,0 km/h (2 Bft) SW 214 ° 0 min 0 W/m² 12,9 °C 12,2 °C 16,1 km/h (3 Bft)
01.09.2026 00:53 22,7 °C 14,9 °C 60 % 88 % 1015,4 hPa 0,0 l/m² 11,8 km/h (2 Bft) SW 219 ° 0 min 0 W/m² 12,9 °C 12,2 °C 14,5 km/h (3 Bft)
01.09.2026 00:54 22,7 °C 14,9 °C 60 % 88 % 1015,4 hPa 0,0 l/m² 10,8 km/h (2 Bft) S-SW 211 ° 0 min 0 W/m² 12,9 °C 12,7 °C 12,9 km/h (3 Bft)
01.09.2026 00:56 22,7 °C 14,8 °C 60 % 88 % 1015,4 hPa 0,0 l/m² 9,4 km/h (2 Bft) SW 225 ° 0 min 0 W/m² 12,8 °C 13,2 °C 16,1 km/h (3 Bft)
01.09.2026 00:58 22,7 °C 14,8 °C 60 % 88 % 1015,5 hPa 0,0 l/m² 10,6 km/h (2 Bft) S-SW 213 ° 0 min 0 W/m² 12,8 °C 12,6 °C 14,5 km/h (3 Bft)
01.09.2026 01:00 22,7 °C 14,8 °C 60 % 88 % 1015,5 hPa 0,0 l/m² 10,3 km/h (2 Bft) SW 234 ° 0 min 0 W/m² 12,8 °C 12,8 °C 14,5 km/h (3 Bft)
01.09.2026 01:02 22,7 °C 14,8 °C 60 % 88 % 1015,5 hPa 0,0 l/m² 10,6 km/h (2 Bft) S-SW 195 ° 0 min 0 W/m² 12,8 °C 12,6 °C 16,1 km/h (3 Bft)
01.09.2026 01:03 22,7 °C 14,7 °C 60 % 88 % 1015,4 hPa 0,0 l/m² 8,7 km/h (2 Bft) S-SW 206 ° 0 min 0 W/m² 12,7 °C 13,4 °C 9,7 km/h (2 Bft)
01.09.2026 01:04 22,7 °C 14,7 °C 60 % 88 % 1015,4 hPa 0,0 l/m² 7,6 km/h (2 Bft) SW 219 ° 0 min 0 W/m² 12,7 °C 14,0 °C 8,0 km/h (2 Bft)
01.09.2026 01:05 22,7 °C 14,7 °C 60 % 88 % 1015,4 hPa 0,0 l/m² 10,8 km/h (2 Bft) S-SW 213 ° 0 min 0 W/m² 12,7 °C 12,4 °C 14,5 km/h (3 Bft)
01.09.2026 01:06 22,7 °C 14,7 °C 60 % 88 % 1015,4 hPa 0,0 l/m² 12,3 km/h (2 Bft) S-SW 209 ° 0 min 0 W/m² 12,7 °C 11,8 °C 16,1 km/h (3 Bft)
01.09.2026 01:08 22,7 °C 14,7 °C 60 % 89 % 1015,4 hPa 0,0 l/m² 9,2 km/h (2 Bft) S-SW 211 ° 0 min 0 W/m² 12,9 °C 13,2 °C 12,9 km/h (3 Bft)
01.09.2026 01:10 22,7 °C 14,7 °C 60 % 88 % 1015,5 hPa 0,0 l/m² 10,4 km/h (2 Bft) SW 223 ° 0 min 0 W/m² 12,7 °C 12,6 °C 14,5 km/h (3 Bft)
01.09.2026 01:12 22,7 °C 14,7 °C 60 % 89 % 1015,4 hPa 0,0 l/m² 8,3 km/h (2 Bft) S-SW 210 ° 0 min 0 W/m² 12,9 °C 13,6 °C 11,3 km/h (2 Bft)
01.09.2026 01:13 22,7 °C 14,7 °C 60 % 89 % 1015,4 hPa 0,0 l/m² 9,7 km/h (2 Bft) S-SW 201 ° 0 min 0 W/m² 12,9 °C 12,9 °C 12,9 km/h (3 Bft)
01.09.2026 01:14 22,7 °C 14,6 °C 60 % 89 % 1015,4 hPa 0,0 l/m² 7,6 km/h (2 Bft) S-SW 209 ° 0 min 0 W/m² 12,8 °C 13,9 °C 9,7 km/h (2 Bft)
01.09.2026 01:16 22,7 °C 14,6 °C 60 % 89 % 1015,5 hPa 0,0 l/m² 7,8 km/h (2 Bft) S-SW 204 ° 0 min 0 W/m² 12,8 °C 13,8 °C 11,3 km/h (2 Bft)
01.09.2026 01:18 22,7 °C 14,6 °C 60 % 89 % 1015,5 hPa 0,0 l/m² 6,4 km/h (2 Bft) S-SW 199 ° 0 min 0 W/m² 12,8 °C 14,6 °C 9,7 km/h (2 Bft)
01.09.2026 01:20 22,7 °C 14,6 °C 60 % 89 % 1015,5 hPa 0,0 l/m² 5,2 km/h (1 Bft) SW 215 ° 0 min 0 W/m² 12,8 °C 14,6 °C 8,0 km/h (2 Bft)
01.09.2026 01:22 22,7 °C 14,6 °C 60 % 89 % 1015,5 hPa 0,0 l/m² 5,4 km/h (2 Bft) SW 223 ° 0 min 0 W/m² 12,8 °C 14,6 °C 9,7 km/h (2 Bft)
01.09.2026 01:23 22,7 °C 14,5 °C 60 % 89 % 1015,5 hPa 0,0 l/m² 7,3 km/h (2 Bft) S-SW 199 ° 0 min 0 W/m² 12,7 °C 14,0 °C 9,7 km/h (2 Bft)
01.09.2026 01:24 22,7 °C 14,5 °C 60 % 89 % 1015,5 hPa 0,0 l/m² 10,1 km/h (2 Bft) SW 221 ° 0 min 0 W/m² 12,7 °C 12,5 °C 12,9 km/h (3 Bft)
01.09.2026 01:26 22,7 °C 14,6 °C 60 % 89 % 1015,4 hPa 0,0 l/m² 7,7 km/h (2 Bft) S-SW 209 ° 0 min 0 W/m² 12,8 °C 13,8 °C 14,5 km/h (3 Bft)
01.09.2026 01:28 22,7 °C 14,5 °C 60 % 89 % 1015,4 hPa 0,0 l/m² 4,7 km/h (1 Bft) SW 215 ° 0 min 0 W/m² 12,7 °C 14,5 °C 6,4 km/h (2 Bft)
01.09.2026 01:30 22,7 °C 14,5 °C 60 % 89 % 1015,5 hPa 0,0 l/m² 8,5 km/h (2 Bft) SW 226 ° 0 min 0 W/m² 12,7 °C 13,3 °C 11,3 km/h (2 Bft)
01.09.2026 01:32 22,7 °C 14,5 °C 60 % 89 % 1015,5 hPa 0,0 l/m² 7,8 km/h (2 Bft) SW 223 ° 0 min 0 W/m² 12,7 °C 13,7 °C 14,5 km/h (3 Bft)
01.09.2026 01:33 22,7 °C 14,5 °C 60 % 89 % 1015,5 hPa 0,0 l/m² 8,0 km/h (2 Bft) SW 229 ° 0 min 0 W/m² 12,7 °C 13,6 °C 11,3 km/h (2 Bft)
01.09.2026 01:34 22,7 °C 14,6 °C 60 % 89 % 1015,5 hPa 0,0 l/m² 6,3 km/h (2 Bft) S-SW 205 ° 0 min 0 W/m² 12,8 °C 14,6 °C 8,0 km/h (2 Bft)
01.09.2026 01:35 22,7 °C 14,6 °C 60 % 89 % 1015,4 hPa 0,0 l/m² 4,0 km/h (1 Bft) S-SW 213 ° 0 min 0 W/m² 12,8 °C 14,6 °C 4,8 km/h (1 Bft)
01.09.2026 01:37 22,7 °C 14,6 °C 60 % 89 % 1015,3 hPa 0,0 l/m² 5,7 km/h (2 Bft) S-SW 199 ° 0 min 0 W/m² 12,8 °C 14,6 °C 8,0 km/h (2 Bft)
01.09.2026 01:39 22,7 °C 14,6 °C 60 % 89 % 1015,4 hPa 0,0 l/m² 7,8 km/h (2 Bft) SW 215 ° 0 min 0 W/m² 12,8 °C 13,8 °C 14,5 km/h (3 Bft)
01.09.2026 01:41 22,7 °C 14,6 °C 60 % 89 % 1015,4 hPa 0,0 l/m² 7,0 km/h (2 Bft) S-SW 208 ° 0 min 0 W/m² 12,8 °C 14,3 °C 9,7 km/h (2 Bft)
01.09.2026 01:42 22,7 °C 14,6 °C 60 % 89 % 1015,4 hPa 0,0 l/m² 12,0 km/h (2 Bft) S-SW 209 ° 0 min 0 W/m² 12,8 °C 11,8 °C 17,7 km/h (3 Bft)
01.09.2026 01:43 22,7 °C 14,6 °C 60 % 89 % 1015,4 hPa 0,0 l/m² 9,7 km/h (2 Bft) S-SW 204 ° 0 min 0 W/m² 12,8 °C 12,8 °C 12,9 km/h (3 Bft)
01.09.2026 01:45 22,7 °C 14,6 °C 60 % 89 % 1015,4 hPa 0,0 l/m² 12,3 km/h (2 Bft) SW 217 ° 0 min 0 W/m² 12,8 °C 11,7 °C 19,3 km/h (3 Bft)
01.09.2026 01:47 22,7 °C 14,7 °C 60 % 89 % 1015,5 hPa 0,0 l/m² 11,7 km/h (2 Bft) S-SW 209 ° 0 min 0 W/m² 12,9 °C 12,0 °C 17,7 km/h (3 Bft)
01.09.2026 01:49 22,7 °C 14,7 °C 60 % 89 % 1015,3 hPa 0,0 l/m² 10,0 km/h (2 Bft) W-SW 238 ° 0 min 0 W/m² 12,9 °C 12,8 °C 16,1 km/h (3 Bft)
01.09.2026 01:51 22,7 °C 14,7 °C 60 % 89 % 1015,5 hPa 0,0 l/m² 9,9 km/h (2 Bft) SW 215 ° 0 min 0 W/m² 12,9 °C 12,8 °C 14,5 km/h (3 Bft)
01.09.2026 01:52 22,7 °C 14,7 °C 60 % 89 % 1015,5 hPa 0,0 l/m² 9,9 km/h (2 Bft) SW 224 ° 0 min 0 W/m² 12,9 °C 12,8 °C 16,1 km/h (3 Bft)
01.09.2026 01:53 22,7 °C 14,7 °C 60 % 89 % 1015,5 hPa 0,0 l/m² 10,5 km/h (2 Bft) SW 225 ° 0 min 0 W/m² 12,9 °C 12,6 °C 12,9 km/h (3 Bft)
01.09.2026 01:55 22,7 °C 14,7 °C 60 % 89 % 1015,5 hPa 0,0 l/m² 10,2 km/h (2 Bft) SW 232 ° 0 min 0 W/m² 12,9 °C 12,7 °C 16,1 km/h (3 Bft)
01.09.2026 01:57 22,7 °C 14,7 °C 60 % 89 % 1015,5 hPa 0,0 l/m² 9,6 km/h (2 Bft) S-SW 204 ° 0 min 0 W/m² 12,9 °C 13,0 °C 14,5 km/h (3 Bft)
01.09.2026 01:59 22,7 °C 14,7 °C 60 % 89 % 1015,5 hPa 0,0 l/m² 12,4 km/h (2 Bft) SW 217 ° 0 min 0 W/m² 12,9 °C 11,8 °C 16,1 km/h (3 Bft)
01.09.2026 02:01 22,7 °C 14,7 °C 60 % 89 % 1015,5 hPa 0,0 l/m² 10,5 km/h (2 Bft) SW 234 ° 0 min 0 W/m² 12,9 °C 12,6 °C 17,7 km/h (3 Bft)
01.09.2026 02:02 22,7 °C 14,7 °C 60 % 89 % 1015,5 hPa 0,0 l/m² 10,4 km/h (2 Bft) SW 225 ° 0 min 0 W/m² 12,9 °C 12,6 °C 12,9 km/h (3 Bft)
01.09.2026 02:03 22,7 °C 14,8 °C 60 % 89 % 1015,5 hPa 0,0 l/m² 11,2 km/h (2 Bft) SW 229 ° 0 min 0 W/m² 13,0 °C 12,4 °C 17,7 km/h (3 Bft)
01.09.2026 02:04 22,7 °C 14,7 °C 60 % 89 % 1015,5 hPa 0,0 l/m² 12,0 km/h (2 Bft) SW 228 ° 0 min 0 W/m² 12,9 °C 11,9 °C 17,7 km/h (3 Bft)
01.09.2026 02:06 22,7 °C 14,8 °C 60 % 89 % 1015,5 hPa 0,0 l/m² 13,9 km/h (3 Bft) SW 223 ° 0 min 0 W/m² 13,0 °C 11,3 °C 22,5 km/h (4 Bft)
01.09.2026 02:08 22,7 °C 14,8 °C 60 % 89 % 1015,4 hPa 0,0 l/m² 9,2 km/h (2 Bft) S-SW 209 ° 0 min 0 W/m² 13,0 °C 13,3 °C 16,1 km/h (3 Bft)
01.09.2026 02:10 22,7 °C 14,8 °C 60 % 89 % 1015,4 hPa 0,0 l/m² 14,1 km/h (3 Bft) SW 222 ° 0 min 0 W/m² 13,0 °C 11,3 °C 19,3 km/h (3 Bft)
01.09.2026 02:13 22,7 °C 14,8 °C 60 % 89 % 1015,4 hPa 0,0 l/m² 11,7 km/h (2 Bft) SW 230 ° 0 min 0 W/m² 13,0 °C 12,2 °C 19,3 km/h (3 Bft)
01.09.2026 02:15 22,7 °C 14,8 °C 60 % 89 % 1015,4 hPa 0,0 l/m² 10,9 km/h (2 Bft) SW 233 ° 0 min 0 W/m² 13,0 °C 12,5 °C 16,1 km/h (3 Bft)
01.09.2026 02:17 22,7 °C 14,9 °C 60 % 89 % 1015,4 hPa 0,0 l/m² 11,9 km/h (2 Bft) W-SW 240 ° 0 min 0 W/m² 13,1 °C 12,2 °C 16,1 km/h (3 Bft)
01.09.2026 02:19 22,7 °C 14,9 °C 60 % 89 % 1015,5 hPa 0,0 l/m² 11,5 km/h (2 Bft) SW 226 ° 0 min 0 W/m² 13,1 °C 12,4 °C 16,1 km/h (3 Bft)
01.09.2026 02:21 22,7 °C 14,9 °C 60 % 89 % 1015,4 hPa 0,0 l/m² 12,2 km/h (2 Bft) SW 217 ° 0 min 0 W/m² 13,1 °C 12,1 °C 16,1 km/h (3 Bft)
01.09.2026 02:22 22,7 °C 14,9 °C 60 % 88 % 1015,5 hPa 0,0 l/m² 13,4 km/h (3 Bft) SW 214 ° 0 min 0 W/m² 12,9 °C 11,6 °C 17,7 km/h (3 Bft)
01.09.2026 02:23 22,7 °C 14,9 °C 60 % 88 % 1015,5 hPa 0,0 l/m² 13,7 km/h (3 Bft) S-SW 211 ° 0 min 0 W/m² 12,9 °C 11,5 °C 19,3 km/h (3 Bft)
01.09.2026 02:25 22,7 °C 15,0 °C 60 % 88 % 1015,5 hPa 0,0 l/m² 13,4 km/h (3 Bft) SW 231 ° 0 min 0 W/m² 13,0 °C 11,7 °C 20,9 km/h (4 Bft)
01.09.2026 02:26 22,7 °C 15,1 °C 60 % 88 % 1015,5 hPa 0,0 l/m² 16,4 km/h (3 Bft) SW 214 ° 0 min 0 W/m² 13,1 °C 10,9 °C 20,9 km/h (4 Bft)
01.09.2026 02:27 22,7 °C 15,1 °C 60 % 88 % 1015,6 hPa 0,0 l/m² 18,6 km/h (3 Bft) SW 225 ° 0 min 0 W/m² 13,1 °C 10,2 °C 22,5 km/h (4 Bft)
01.09.2026 02:28 22,7 °C 15,1 °C 60 % 88 % 1015,6 hPa 0,0 l/m² 14,6 km/h (3 Bft) W 269 ° 0 min 0 W/m² 13,1 °C 11,4 °C 19,3 km/h (3 Bft)
01.09.2026 02:30 22,7 °C 15,1 °C 60 % 88 % 1015,7 hPa 0,0 l/m² 16,0 km/h (3 Bft) SW 232 ° 0 min 0 W/m² 13,1 °C 11,0 °C 22,5 km/h (4 Bft)
01.09.2026 02:33 22,7 °C 15,1 °C 60 % 88 % 1015,7 hPa 0,0 l/m² 12,8 km/h (3 Bft) SW 233 ° 0 min 0 W/m² 13,1 °C 12,1 °C 17,7 km/h (3 Bft)
01.09.2026 02:35 22,7 °C 15,1 °C 60 % 87 % 1015,7 hPa 0,0 l/m² 13,2 km/h (3 Bft) SW 221 ° 0 min 0 W/m² 13,0 °C 11,9 °C 17,7 km/h (3 Bft)
01.09.2026 02:37 22,7 °C 15,1 °C 60 % 87 % 1015,6 hPa 0,0 l/m² 13,5 km/h (3 Bft) SW 224 ° 0 min 0 W/m² 13,0 °C 11,8 °C 17,7 km/h (3 Bft)
01.09.2026 02:39 22,7 °C 15,1 °C 60 % 87 % 1015,7 hPa 0,0 l/m² 14,5 km/h (3 Bft) S-SW 211 ° 0 min 0 W/m² 13,0 °C 11,5 °C 17,7 km/h (3 Bft)
01.09.2026 02:41 22,7 °C 15,1 °C 60 % 87 % 1015,6 hPa 0,0 l/m² 13,8 km/h (3 Bft) SW 215 ° 0 min 0 W/m² 13,0 °C 11,7 °C 19,3 km/h (3 Bft)
01.09.2026 02:42 22,7 °C 15,1 °C 59 % 87 % 1015,7 hPa 0,0 l/m² 14,5 km/h (3 Bft) S-SW 206 ° 0 min 0 W/m² 13,0 °C 11,5 °C 17,7 km/h (3 Bft)
01.09.2026 02:43 22,7 °C 15,0 °C 59 % 87 % 1015,7 hPa 0,0 l/m² 15,8 km/h (3 Bft) S-SW 209 ° 0 min 0 W/m² 12,9 °C 10,9 °C 19,3 km/h (3 Bft)
01.09.2026 02:45 22,7 °C 15,0 °C 59 % 87 % 1015,7 hPa 0,0 l/m² 12,5 km/h (2 Bft) SW 223 ° 0 min 0 W/m² 12,9 °C 12,1 °C 17,7 km/h (3 Bft)
01.09.2026 02:46 22,7 °C 14,9 °C 59 % 87 % 1015,6 hPa 0,0 l/m² 15,0 km/h (3 Bft) S-SW 194 ° 0 min 0 W/m² 12,8 °C 11,1 °C 19,3 km/h (3 Bft)
01.09.2026 02:48 22,7 °C 15,0 °C 59 % 87 % 1015,6 hPa 0,0 l/m² 15,6 km/h (3 Bft) S-SW 211 ° 0 min 0 W/m² 12,9 °C 11,0 °C 24,1 km/h (4 Bft)
01.09.2026 02:50 22,7 °C 14,9 °C 59 % 88 % 1015,6 hPa 0,0 l/m² 14,3 km/h (3 Bft) SW 230 ° 0 min 0 W/m² 12,9 °C 11,3 °C 19,3 km/h (3 Bft)
01.09.2026 02:53 22,7 °C 14,9 °C 59 % 88 % 1015,7 hPa 0,0 l/m² 14,8 km/h (3 Bft) SW 221 ° 0 min 0 W/m² 12,9 °C 11,1 °C 22,5 km/h (4 Bft)
01.09.2026 02:55 22,7 °C 14,9 °C 59 % 88 % 1015,7 hPa 0,0 l/m² 13,8 km/h (3 Bft) SW 217 ° 0 min 0 W/m² 12,9 °C 11,5 °C 17,7 km/h (3 Bft)
01.09.2026 02:57 22,7 °C 14,9 °C 59 % 88 % 1015,8 hPa 0,0 l/m² 14,8 km/h (3 Bft) S-SW 206 ° 0 min 0 W/m² 12,9 °C 11,1 °C 19,3 km/h (3 Bft)
01.09.2026 02:59 22,7 °C 14,9 °C 59 % 88 % 1015,8 hPa 0,0 l/m² 11,7 km/h (2 Bft) SW 221 ° 0 min 0 W/m² 12,9 °C 12,3 °C 16,1 km/h (3 Bft)
01.09.2026 03:01 22,7 °C 14,8 °C 59 % 88 % 1015,8 hPa 0,0 l/m² 12,2 km/h (2 Bft) SW 218 ° 0 min 0 W/m² 12,8 °C 12,0 °C 16,1 km/h (3 Bft)
01.09.2026 03:02 22,6 °C 14,8 °C 59 % 88 % 1015,8 hPa 0,0 l/m² 14,1 km/h (3 Bft) SW 226 ° 0 min 0 W/m² 12,8 °C 11,3 °C 16,1 km/h (3 Bft)
01.09.2026 03:03 22,6 °C 14,8 °C 59 % 88 % 1015,8 hPa 0,0 l/m² 9,9 km/h (2 Bft) S-SW 206 ° 0 min 0 W/m² 12,8 °C 12,9 °C 12,9 km/h (3 Bft)
01.09.2026 03:05 22,6 °C 14,8 °C 59 % 88 % 1015,8 hPa 0,0 l/m² 10,9 km/h (2 Bft) SW 227 ° 0 min 0 W/m² 12,8 °C 12,5 °C 14,5 km/h (3 Bft)
01.09.2026 03:06 22,6 °C 14,8 °C 59 % 88 % 1015,8 hPa 0,0 l/m² 10,9 km/h (2 Bft) SW 215 ° 0 min 0 W/m² 12,8 °C 12,5 °C 12,9 km/h (3 Bft)
01.09.2026 03:07 22,6 °C 14,7 °C 59 % 88 % 1015,8 hPa 0,0 l/m² 10,9 km/h (2 Bft) SW 220 ° 0 min 0 W/m² 12,7 °C 12,4 °C 14,5 km/h (3 Bft)
01.09.2026 03:08 22,6 °C 14,7 °C 59 % 88 % 1015,8 hPa 0,0 l/m² 13,0 km/h (3 Bft) SW 218 ° 0 min 0 W/m² 12,7 °C 11,5 °C 16,1 km/h (3 Bft)
01.09.2026 03:10 22,6 °C 14,7 °C 59 % 88 % 1015,8 hPa 0,0 l/m² 12,9 km/h (3 Bft) SW 220 ° 0 min 0 W/m² 12,7 °C 11,6 °C 17,7 km/h (3 Bft)
01.09.2026 03:13 22,6 °C 14,7 °C 59 % 88 % 1015,8 hPa 0,0 l/m² 11,6 km/h (2 Bft) SW 234 ° 0 min 0 W/m² 12,7 °C 12,1 °C 19,3 km/h (3 Bft)
01.09.2026 03:15 22,6 °C 14,7 °C 59 % 88 % 1015,8 hPa 0,0 l/m² 10,4 km/h (2 Bft) SW 214 ° 0 min 0 W/m² 12,7 °C 12,6 °C 19,3 km/h (3 Bft)
01.09.2026 03:17 22,6 °C 14,7 °C 59 % 89 % 1015,9 hPa 0,0 l/m² 12,3 km/h (2 Bft) SW 225 ° 0 min 0 W/m² 12,9 °C 11,8 °C 17,7 km/h (3 Bft)
01.09.2026 03:19 22,6 °C 14,7 °C 59 % 89 % 1015,8 hPa 0,0 l/m² 11,0 km/h (2 Bft) SW 227 ° 0 min 0 W/m² 12,9 °C 12,3 °C 17,7 km/h (3 Bft)
01.09.2026 03:21 22,6 °C 14,7 °C 59 % 89 % 1015,9 hPa 0,0 l/m² 10,8 km/h (2 Bft) SW 225 ° 0 min 0 W/m² 12,9 °C 12,4 °C 16,1 km/h (3 Bft)
01.09.2026 03:22 22,6 °C 14,7 °C 59 % 89 % 1015,8 hPa 0,0 l/m² 11,8 km/h (2 Bft) SW 225 ° 0 min 0 W/m² 12,9 °C 12,0 °C 19,3 km/h (3 Bft)
01.09.2026 03:23 22,6 °C 14,7 °C 59 % 89 % 1015,8 hPa 0,0 l/m² 13,0 km/h (3 Bft) SW 230 ° 0 min 0 W/m² 12,9 °C 11,5 °C 16,1 km/h (3 Bft)
01.09.2026 03:25 22,6 °C 14,7 °C 59 % 89 % 1015,9 hPa 0,0 l/m² 10,7 km/h (2 Bft) SW 230 ° 0 min 0 W/m² 12,9 °C 12,5 °C 14,5 km/h (3 Bft)
01.09.2026 03:26 22,6 °C 14,7 °C 59 % 89 % 1015,9 hPa 0,0 l/m² 11,3 km/h (2 Bft) W-SW 240 ° 0 min 0 W/m² 12,9 °C 12,2 °C 17,7 km/h (3 Bft)
01.09.2026 03:27 22,6 °C 14,7 °C 59 % 89 % 1015,9 hPa 0,0 l/m² 10,7 km/h (2 Bft) W-SW 241 ° 0 min 0 W/m² 12,9 °C 12,5 °C 16,1 km/h (3 Bft)
01.09.2026 03:29 22,6 °C 14,7 °C 59 % 89 % 1015,8 hPa 0,0 l/m² 14,1 km/h (3 Bft) SW 229 ° 0 min 0 W/m² 12,9 °C 11,1 °C 19,3 km/h (3 Bft)
01.09.2026 03:31 22,6 °C 14,7 °C 59 % 89 % 1015,8 hPa 0,0 l/m² 12,4 km/h (2 Bft) W-SW 244 ° 0 min 0 W/m² 12,9 °C 11,8 °C 22,5 km/h (4 Bft)
01.09.2026 03:32 22,6 °C 14,7 °C 59 % 88 % 1015,8 hPa 0,0 l/m² 13,2 km/h (3 Bft) SW 220 ° 0 min 0 W/m² 12,7 °C 11,5 °C 19,3 km/h (3 Bft)
01.09.2026 03:33 22,6 °C 14,7 °C 59 % 89 % 1015,8 hPa 0,0 l/m² 11,2 km/h (2 Bft) SW 230 ° 0 min 0 W/m² 12,9 °C 12,3 °C 16,1 km/h (3 Bft)
01.09.2026 03:35 22,6 °C 14,7 °C 59 % 89 % 1015,8 hPa 0,0 l/m² 11,6 km/h (2 Bft) SW 225 ° 0 min 0 W/m² 12,9 °C 12,1 °C 16,1 km/h (3 Bft)
01.09.2026 03:36 22,6 °C 14,6 °C 59 % 89 % 1015,8 hPa 0,0 l/m² 13,7 km/h (3 Bft) S-SW 213 ° 0 min 0 W/m² 12,8 °C 11,2 °C 20,9 km/h (4 Bft)
01.09.2026 03:37 22,6 °C 14,6 °C 59 % 89 % 1015,8 hPa 0,0 l/m² 12,0 km/h (2 Bft) SW 229 ° 0 min 0 W/m² 12,8 °C 11,8 °C 14,5 km/h (3 Bft)
01.09.2026 03:38 22,6 °C 14,6 °C 59 % 89 % 1015,8 hPa 0,0 l/m² 15,0 km/h (3 Bft) SW 225 ° 0 min 0 W/m² 12,8 °C 10,7 °C 20,9 km/h (4 Bft)
01.09.2026 03:40 22,6 °C 14,6 °C 59 % 89 % 1015,9 hPa 0,0 l/m² 13,3 km/h (3 Bft) SW 227 ° 0 min 0 W/m² 12,8 °C 11,3 °C 20,9 km/h (4 Bft)
01.09.2026 03:43 22,6 °C 14,6 °C 59 % 89 % 1015,9 hPa 0,0 l/m² 12,9 km/h (3 Bft) SW 223 ° 0 min 0 W/m² 12,8 °C 11,5 °C 19,3 km/h (3 Bft)
01.09.2026 03:45 22,6 °C 14,6 °C 59 % 89 % 1015,9 hPa 0,0 l/m² 11,5 km/h (2 Bft) SW 227 ° 0 min 0 W/m² 12,8 °C 12,0 °C 16,1 km/h (3 Bft)
01.09.2026 03:47 22,6 °C 14,6 °C 59 % 89 % 1015,9 hPa 0,0 l/m² 11,5 km/h (2 Bft) SW 223 ° 0 min 0 W/m² 12,8 °C 12,0 °C 19,3 km/h (3 Bft)
01.09.2026 03:49 22,6 °C 14,5 °C 59 % 89 % 1015,9 hPa 0,0 l/m² 11,7 km/h (2 Bft) SW 234 ° 0 min 0 W/m² 12,7 °C 11,8 °C 17,7 km/h (3 Bft)
01.09.2026 03:50 22,6 °C 14,5 °C 59 % 89 % 1015,9 hPa 0,0 l/m² 10,0 km/h (2 Bft) SW 225 ° 0 min 0 W/m² 12,7 °C 12,6 °C 12,9 km/h (3 Bft)
01.09.2026 03:51 22,6 °C 14,5 °C 59 % 89 % 1015,9 hPa 0,0 l/m² 13,7 km/h (3 Bft) SW 217 ° 0 min 0 W/m² 12,7 °C 11,0 °C 17,7 km/h (3 Bft)
01.09.2026 03:52 22,6 °C 14,5 °C 59 % 89 % 1015,9 hPa 0,0 l/m² 11,1 km/h (2 Bft) SW 227 ° 0 min 0 W/m² 12,7 °C 12,1 °C 16,1 km/h (3 Bft)
01.09.2026 03:54 22,6 °C 14,5 °C 59 % 89 % 1015,9 hPa 0,0 l/m² 12,0 km/h (2 Bft) SW 235 ° 0 min 0 W/m² 12,7 °C 11,7 °C 17,7 km/h (3 Bft)
01.09.2026 03:56 22,6 °C 14,5 °C 59 % 89 % 1015,9 hPa 0,0 l/m² 10,7 km/h (2 Bft) SW 227 ° 0 min 0 W/m² 12,7 °C 12,2 °C 12,9 km/h (3 Bft)
01.09.2026 03:58 22,6 °C 14,5 °C 59 % 89 % 1016,0 hPa 0,0 l/m² 10,4 km/h (2 Bft) SW 226 ° 0 min 0 W/m² 12,7 °C 12,4 °C 14,5 km/h (3 Bft)
01.09.2026 04:00 22,6 °C 14,4 °C 59 % 89 % 1015,9 hPa 0,0 l/m² 10,8 km/h (2 Bft) SW 232 ° 0 min 0 W/m² 12,6 °C 12,1 °C 19,3 km/h (3 Bft)
01.09.2026 04:02 22,6 °C 14,4 °C 59 % 89 % 1016,0 hPa 0,0 l/m² 9,3 km/h (2 Bft) S-SW 209 ° 0 min 0 W/m² 12,6 °C 12,8 °C 12,9 km/h (3 Bft)
01.09.2026 04:03 22,6 °C 14,4 °C 59 % 89 % 1016,0 hPa 0,0 l/m² 8,0 km/h (2 Bft) SW 217 ° 0 min 0 W/m² 12,6 °C 13,5 °C 11,3 km/h (2 Bft)
01.09.2026 04:05 22,6 °C 14,4 °C 59 % 89 % 1016,0 hPa 0,0 l/m² 7,3 km/h (2 Bft) S-SW 212 ° 0 min 0 W/m² 12,6 °C 13,9 °C 9,7 km/h (2 Bft)
01.09.2026 04:06 22,6 °C 14,4 °C 59 % 89 % 1016,0 hPa 0,0 l/m² 12,4 km/h (2 Bft) SW 229 ° 0 min 0 W/m² 12,6 °C 11,4 °C 16,1 km/h (3 Bft)
01.09.2026 04:07 22,6 °C 14,4 °C 59 % 89 % 1015,9 hPa 0,0 l/m² 12,1 km/h (2 Bft) SW 221 ° 0 min 0 W/m² 12,6 °C 11,5 °C 17,7 km/h (3 Bft)
01.09.2026 04:08 22,6 °C 14,4 °C 59 % 89 % 1015,9 hPa 0,0 l/m² 9,9 km/h (2 Bft) SW 227 ° 0 min 0 W/m² 12,6 °C 12,5 °C 12,9 km/h (3 Bft)
01.09.2026 04:10 22,6 °C 14,4 °C 59 % 89 % 1016,0 hPa 0,0 l/m² 14,3 km/h (3 Bft) SW 225 ° 0 min 0 W/m² 12,6 °C 10,7 °C 19,3 km/h (3 Bft)
01.09.2026 04:13 22,6 °C 14,4 °C 59 % 89 % 1016,1 hPa 0,0 l/m² 12,2 km/h (2 Bft) SW 233 ° 0 min 0 W/m² 12,6 °C 11,5 °C 20,9 km/h (4 Bft)
01.09.2026 04:15 22,6 °C 14,5 °C 59 % 89 % 1016,0 hPa 0,0 l/m² 9,8 km/h (2 Bft) SW 235 ° 0 min 0 W/m² 12,7 °C 12,7 °C 16,1 km/h (3 Bft)
01.09.2026 04:17 22,6 °C 14,6 °C 59 % 89 % 1016,1 hPa 0,0 l/m² 9,9 km/h (2 Bft) SW 217 ° 0 min 0 W/m² 12,8 °C 12,7 °C 14,5 km/h (3 Bft)
01.09.2026 04:19 22,6 °C 14,6 °C 59 % 89 % 1016,1 hPa 0,0 l/m² 10,5 km/h (2 Bft) W 262 ° 0 min 0 W/m² 12,8 °C 12,4 °C 16,1 km/h (3 Bft)
01.09.2026 04:21 22,6 °C 14,6 °C 59 % 89 % 1016,2 hPa 0,0 l/m² 12,2 km/h (2 Bft) SW 223 ° 0 min 0 W/m² 12,8 °C 11,7 °C 17,7 km/h (3 Bft)
01.09.2026 04:22 22,6 °C 14,6 °C 59 % 89 % 1016,1 hPa 0,0 l/m² 12,5 km/h (2 Bft) SW 233 ° 0 min 0 W/m² 12,8 °C 11,6 °C 16,1 km/h (3 Bft)
01.09.2026 04:23 22,6 °C 14,6 °C 59 % 89 % 1016,1 hPa 0,0 l/m² 11,7 km/h (2 Bft) SW 217 ° 0 min 0 W/m² 12,8 °C 11,9 °C 14,5 km/h (3 Bft)
01.09.2026 04:25 22,6 °C 14,6 °C 59 % 89 % 1016,1 hPa 0,0 l/m² 11,9 km/h (2 Bft) SW 228 ° 0 min 0 W/m² 12,8 °C 11,9 °C 14,5 km/h (3 Bft)
01.09.2026 04:26 22,6 °C 14,6 °C 59 % 89 % 1016,1 hPa 0,0 l/m² 12,4 km/h (2 Bft) SW 231 ° 0 min 0 W/m² 12,8 °C 11,7 °C 16,1 km/h (3 Bft)
01.09.2026 04:27 22,6 °C 14,6 °C 59 % 89 % 1016,1 hPa 0,0 l/m² 13,6 km/h (3 Bft) SW 219 ° 0 min 0 W/m² 12,8 °C 11,2 °C 16,1 km/h (3 Bft)
01.09.2026 04:28 22,6 °C 14,6 °C 59 % 89 % 1016,2 hPa 0,0 l/m² 12,2 km/h (2 Bft) SW 216 ° 0 min 0 W/m² 12,8 °C 11,7 °C 17,7 km/h (3 Bft)
01.09.2026 04:30 22,6 °C 14,6 °C 59 % 89 % 1016,1 hPa 0,0 l/m² 13,2 km/h (3 Bft) S-SW 211 ° 0 min 0 W/m² 12,8 °C 11,3 °C 19,3 km/h (3 Bft)
01.09.2026 04:33 22,6 °C 14,6 °C 59 % 89 % 1016,1 hPa 0,0 l/m² 13,3 km/h (3 Bft) SW 232 ° 0 min 0 W/m² 12,8 °C 11,3 °C 19,3 km/h (3 Bft)
01.09.2026 04:35 22,6 °C 14,6 °C 59 % 89 % 1016,2 hPa 0,0 l/m² 13,8 km/h (3 Bft) W 262 ° 0 min 0 W/m² 12,8 °C 11,1 °C 19,3 km/h (3 Bft)
01.09.2026 04:37 22,6 °C 14,6 °C 59 % 89 % 1016,1 hPa 0,0 l/m² 13,9 km/h (3 Bft) S-SW 211 ° 0 min 0 W/m² 12,8 °C 11,1 °C 17,7 km/h (3 Bft)
01.09.2026 04:39 22,6 °C 14,6 °C 59 % 89 % 1016,1 hPa 0,0 l/m² 12,6 km/h (3 Bft) SW 234 ° 0 min 0 W/m² 12,8 °C 11,6 °C 19,3 km/h (3 Bft)
01.09.2026 04:41 22,6 °C 14,6 °C 59 % 89 % 1016,2 hPa 0,0 l/m² 12,0 km/h (2 Bft) SW 227 ° 0 min 0 W/m² 12,8 °C 11,8 °C 20,9 km/h (4 Bft)
01.09.2026 04:42 22,6 °C 14,6 °C 59 % 89 % 1016,1 hPa 0,0 l/m² 12,0 km/h (2 Bft) SW 229 ° 0 min 0 W/m² 12,8 °C 11,8 °C 16,1 km/h (3 Bft)
01.09.2026 04:43 22,6 °C 14,6 °C 59 % 89 % 1016,1 hPa 0,0 l/m² 11,6 km/h (2 Bft) SW 223 ° 0 min 0 W/m² 12,8 °C 12,0 °C 14,5 km/h (3 Bft)
01.09.2026 04:45 22,6 °C 14,6 °C 59 % 89 % 1016,1 hPa 0,0 l/m² 11,9 km/h (2 Bft) SW 217 ° 0 min 0 W/m² 12,8 °C 11,9 °C 16,1 km/h (3 Bft)
01.09.2026 04:46 22,6 °C 14,6 °C 59 % 89 % 1016,2 hPa 0,0 l/m² 13,5 km/h (3 Bft) S-SW 212 ° 0 min 0 W/m² 12,8 °C 11,2 °C 20,9 km/h (4 Bft)
01.09.2026 04:47 22,6 °C 14,6 °C 59 % 89 % 1016,2 hPa 0,0 l/m² 12,5 km/h (2 Bft) SW 227 ° 0 min 0 W/m² 12,8 °C 11,6 °C 16,1 km/h (3 Bft)
01.09.2026 04:48 22,6 °C 14,6 °C 59 % 89 % 1016,2 hPa 0,0 l/m² 12,1 km/h (2 Bft) SW 226 ° 0 min 0 W/m² 12,8 °C 11,8 °C 16,1 km/h (3 Bft)
01.09.2026 04:50 22,6 °C 14,6 °C 59 % 89 % 1016,2 hPa 0,0 l/m² 10,4 km/h (2 Bft) SW 227 ° 0 min 0 W/m² 12,8 °C 12,5 °C 14,5 km/h (3 Bft)
01.09.2026 04:53 22,6 °C 14,6 °C 60 % 89 % 1016,3 hPa 0,0 l/m² 11,1 km/h (2 Bft) SW 219 ° 0 min 0 W/m² 12,8 °C 12,2 °C 14,5 km/h (3 Bft)
01.09.2026 04:55 22,6 °C 14,6 °C 60 % 89 % 1016,3 hPa 0,0 l/m² 10,1 km/h (2 Bft) SW 224 ° 0 min 0 W/m² 12,8 °C 12,6 °C 12,9 km/h (3 Bft)
01.09.2026 04:57 22,6 °C 14,6 °C 60 % 89 % 1016,3 hPa 0,0 l/m² 10,1 km/h (2 Bft) SW 228 ° 0 min 0 W/m² 12,8 °C 12,6 °C 17,7 km/h (3 Bft)
01.09.2026 04:59 22,6 °C 14,6 °C 60 % 89 % 1016,3 hPa 0,0 l/m² 10,8 km/h (2 Bft) SW 215 ° 0 min 0 W/m² 12,8 °C 12,3 °C 14,5 km/h (3 Bft)
01.09.2026 05:01 22,6 °C 14,6 °C 60 % 89 % 1016,2 hPa 0,0 l/m² 11,0 km/h (2 Bft) W-SW 249 ° 0 min 0 W/m² 12,8 °C 12,2 °C 16,1 km/h (3 Bft)
01.09.2026 05:02 22,6 °C 14,6 °C 60 % 89 % 1016,3 hPa 0,0 l/m² 10,2 km/h (2 Bft) W-SW 244 ° 0 min 0 W/m² 12,8 °C 12,6 °C 14,5 km/h (3 Bft)
01.09.2026 05:03 22,6 °C 14,6 °C 60 % 89 % 1016,3 hPa 0,0 l/m² 13,4 km/h (3 Bft) SW 232 ° 0 min 0 W/m² 12,8 °C 11,3 °C 16,1 km/h (3 Bft)
01.09.2026 05:05 22,6 °C 14,6 °C 60 % 89 % 1016,3 hPa 0,0 l/m² 12,5 km/h (2 Bft) SW 222 ° 0 min 0 W/m² 12,8 °C 11,6 °C 17,7 km/h (3 Bft)
01.09.2026 05:06 22,6 °C 14,6 °C 60 % 89 % 1016,4 hPa 0,0 l/m² 13,0 km/h (3 Bft) W-SW 245 ° 0 min 0 W/m² 12,8 °C 11,4 °C 16,1 km/h (3 Bft)
01.09.2026 05:07 22,6 °C 14,7 °C 60 % 89 % 1016,3 hPa 0,0 l/m² 11,4 km/h (2 Bft) SW 221 ° 0 min 0 W/m² 12,9 °C 12,2 °C 14,5 km/h (3 Bft)
01.09.2026 05:08 22,6 °C 14,6 °C 60 % 89 % 1016,3 hPa 0,0 l/m² 10,5 km/h (2 Bft) W 267 ° 0 min 0 W/m² 12,8 °C 12,4 °C 12,9 km/h (3 Bft)
01.09.2026 05:10 22,6 °C 14,6 °C 60 % 89 % 1016,3 hPa 0,0 l/m² 10,8 km/h (2 Bft) SW 226 ° 0 min 0 W/m² 12,8 °C 12,3 °C 16,1 km/h (3 Bft)
01.09.2026 05:13 22,6 °C 14,6 °C 60 % 89 % 1016,3 hPa 0,0 l/m² 10,9 km/h (2 Bft) W-SW 240 ° 0 min 0 W/m² 12,8 °C 12,3 °C 17,7 km/h (3 Bft)
01.09.2026 05:15 22,6 °C 14,6 °C 60 % 89 % 1016,4 hPa 0,0 l/m² 10,0 km/h (2 Bft) SW 231 ° 0 min 0 W/m² 12,8 °C 12,7 °C 12,9 km/h (3 Bft)
01.09.2026 05:17 22,6 °C 14,6 °C 60 % 89 % 1016,5 hPa 0,0 l/m² 9,2 km/h (2 Bft) W-SW 240 ° 0 min 0 W/m² 12,8 °C 13,1 °C 14,5 km/h (3 Bft)
01.09.2026 05:19 22,6 °C 14,6 °C 60 % 89 % 1016,5 hPa 0,0 l/m² 14,3 km/h (3 Bft) SW 226 ° 0 min 0 W/m² 12,8 °C 10,9 °C 19,3 km/h (3 Bft)
01.09.2026 05:21 22,6 °C 14,6 °C 60 % 89 % 1016,4 hPa 0,0 l/m² 12,0 km/h (2 Bft) W-SW 248 ° 0 min 0 W/m² 12,8 °C 11,8 °C 22,5 km/h (4 Bft)
01.09.2026 05:22 22,6 °C 14,6 °C 60 % 89 % 1016,5 hPa 0,0 l/m² 9,4 km/h (2 Bft) SW 222 ° 0 min 0 W/m² 12,8 °C 13,0 °C 12,9 km/h (3 Bft)
01.09.2026 05:23 22,6 °C 14,6 °C 60 % 89 % 1016,5 hPa 0,0 l/m² 10,9 km/h (2 Bft) SW 221 ° 0 min 0 W/m² 12,8 °C 12,3 °C 14,5 km/h (3 Bft)
01.09.2026 05:25 22,6 °C 14,6 °C 60 % 89 % 1016,4 hPa 0,0 l/m² 12,0 km/h (2 Bft) S-SW 213 ° 0 min 0 W/m² 12,8 °C 11,8 °C 17,7 km/h (3 Bft)
01.09.2026 05:26 22,6 °C 14,6 °C 60 % 89 % 1016,5 hPa 0,0 l/m² 8,1 km/h (2 Bft) SW 236 ° 0 min 0 W/m² 12,8 °C 13,6 °C 14,5 km/h (3 Bft)
01.09.2026 05:27 22,6 °C 14,6 °C 60 % 89 % 1016,4 hPa 0,0 l/m² 11,9 km/h (2 Bft) W-SW 239 ° 0 min 0 W/m² 12,8 °C 11,9 °C 16,1 km/h (3 Bft)
01.09.2026 05:28 22,6 °C 14,6 °C 60 % 89 % 1016,4 hPa 0,0 l/m² 12,0 km/h (2 Bft) S-SW 213 ° 0 min 0 W/m² 12,8 °C 11,8 °C 14,5 km/h (3 Bft)
01.09.2026 05:30 22,6 °C 14,6 °C 60 % 89 % 1016,5 hPa 0,0 l/m² 10,9 km/h (2 Bft) SW 236 ° 0 min 0 W/m² 12,8 °C 12,3 °C 17,7 km/h (3 Bft)
01.09.2026 05:33 22,6 °C 14,6 °C 60 % 89 % 1016,4 hPa 0,0 l/m² 10,9 km/h (2 Bft) W-SW 247 ° 0 min 0 W/m² 12,8 °C 12,3 °C 17,7 km/h (3 Bft)
01.09.2026 05:35 22,6 °C 14,6 °C 60 % 89 % 1016,4 hPa 0,0 l/m² 10,4 km/h (2 Bft) SW 227 ° 0 min 0 W/m² 12,8 °C 12,5 °C 14,5 km/h (3 Bft)
01.09.2026 05:37 22,6 °C 14,5 °C 60 % 89 % 1016,4 hPa 0,0 l/m² 11,5 km/h (2 Bft) SW 225 ° 0 min 0 W/m² 12,7 °C 11,9 °C 16,1 km/h (3 Bft)
01.09.2026 05:39 22,6 °C 14,5 °C 60 % 89 % 1016,5 hPa 0,0 l/m² 10,5 km/h (2 Bft) W-SW 240 ° 0 min 0 W/m² 12,7 °C 12,3 °C 14,5 km/h (3 Bft)
01.09.2026 05:41 22,6 °C 14,5 °C 60 % 89 % 1016,5 hPa 0,0 l/m² 7,2 km/h (2 Bft) W-SW 244 ° 0 min 0 W/m² 12,7 °C 14,0 °C 12,9 km/h (3 Bft)
01.09.2026 05:42 22,6 °C 14,4 °C 60 % 89 % 1016,5 hPa 0,0 l/m² 9,1 km/h (2 Bft) SW 215 ° 0 min 0 W/m² 12,6 °C 12,9 °C 16,1 km/h (3 Bft)
01.09.2026 05:43 22,6 °C 14,5 °C 60 % 89 % 1016,5 hPa 0,0 l/m² 7,9 km/h (2 Bft) SW 234 ° 0 min 0 W/m² 12,7 °C 13,6 °C 12,9 km/h (3 Bft)
01.09.2026 05:45 22,6 °C 14,4 °C 60 % 89 % 1016,5 hPa 0,0 l/m² 11,1 km/h (2 Bft) SW 221 ° 0 min 0 W/m² 12,6 °C 12,0 °C 16,1 km/h (3 Bft)
01.09.2026 05:46 22,5 °C 14,4 °C 60 % 89 % 1016,6 hPa 0,0 l/m² 9,4 km/h (2 Bft) SW 234 ° 0 min 0 W/m² 12,6 °C 12,7 °C 11,3 km/h (2 Bft)
01.09.2026 05:47 22,6 °C 14,4 °C 60 % 89 % 1016,6 hPa 0,0 l/m² 8,0 km/h (2 Bft) SW 229 ° 0 min 0 W/m² 12,6 °C 13,5 °C 11,3 km/h (2 Bft)
01.09.2026 05:48 22,6 °C 14,4 °C 60 % 89 % 1016,6 hPa 0,0 l/m² 9,7 km/h (2 Bft) SW 231 ° 0 min 0 W/m² 12,6 °C 12,6 °C 12,9 km/h (3 Bft)
01.09.2026 05:50 22,6 °C 14,4 °C 60 % 89 % 1016,6 hPa 0,0 l/m² 8,6 km/h (2 Bft) SW 231 ° 0 min 0 W/m² 12,6 °C 13,1 °C 12,9 km/h (3 Bft)
01.09.2026 05:53 22,6 °C 14,3 °C 60 % 89 % 1016,7 hPa 0,0 l/m² 9,9 km/h (2 Bft) S-SW 213 ° 0 min 0 W/m² 12,5 °C 12,4 °C 17,7 km/h (3 Bft)
01.09.2026 05:55 22,5 °C 14,3 °C 60 % 89 % 1016,7 hPa 0,0 l/m² 7,9 km/h (2 Bft) W-SW 243 ° 0 min 0 W/m² 12,5 °C 13,4 °C 12,9 km/h (3 Bft)
01.09.2026 05:57 22,5 °C 14,3 °C 60 % 89 % 1016,8 hPa 0,0 l/m² 7,7 km/h (2 Bft) W 261 ° 0 min 0 W/m² 12,5 °C 13,5 °C 16,1 km/h (3 Bft)
01.09.2026 05:59 22,5 °C 14,4 °C 60 % 89 % 1016,7 hPa 0,0 l/m² 6,0 km/h (2 Bft) W-SW 255 ° 0 min 0 W/m² 12,6 °C 14,4 °C 11,3 km/h (2 Bft)
01.09.2026 06:01 22,5 °C 14,3 °C 60 % 89 % 1016,7 hPa 0,0 l/m² 5,6 km/h (2 Bft) W-SW 246 ° 0 min 0 W/m² 12,5 °C 14,3 °C 11,3 km/h (2 Bft)
01.09.2026 06:02 22,5 °C 14,3 °C 60 % 89 % 1016,8 hPa 0,0 l/m² 3,8 km/h (1 Bft) W-SW 241 ° 0 min 0 W/m² 12,5 °C 14,3 °C 4,8 km/h (1 Bft)
01.09.2026 06:03 22,5 °C 14,3 °C 60 % 89 % 1016,8 hPa 0,0 l/m² 3,6 km/h (1 Bft) SW 231 ° 0 min 0 W/m² 12,5 °C 14,3 °C 6,4 km/h (2 Bft)
01.09.2026 06:05 22,6 °C 14,3 °C 60 % 89 % 1016,9 hPa 0,0 l/m² 4,9 km/h (1 Bft) SW 236 ° 0 min 0 W/m² 12,5 °C 14,3 °C 8,0 km/h (2 Bft)
01.09.2026 06:07 22,5 °C 14,2 °C 60 % 89 % 1016,8 hPa 0,0 l/m² 6,4 km/h (2 Bft) SW 232 ° 0 min 0 W/m² 12,4 °C 14,2 °C 9,7 km/h (2 Bft)
01.09.2026 06:09 22,6 °C 14,2 °C 60 % 90 % 1016,9 hPa 0,0 l/m² 5,5 km/h (2 Bft) SW 221 ° 0 min 0 W/m² 12,6 °C 14,2 °C 8,0 km/h (2 Bft)
01.09.2026 06:11 22,5 °C 14,3 °C 60 % 90 % 1016,9 hPa 0,0 l/m² 5,8 km/h (2 Bft) W-SW 243 ° 0 min 0 W/m² 12,7 °C 14,3 °C 9,7 km/h (2 Bft)
01.09.2026 06:12 22,5 °C 14,3 °C 60 % 90 % 1016,9 hPa 0,0 l/m² 3,4 km/h (1 Bft) W-SW 237 ° 0 min 0 W/m² 12,7 °C 14,3 °C 6,4 km/h (2 Bft)
01.09.2026 06:13 22,5 °C 14,3 °C 60 % 90 % 1016,9 hPa 0,0 l/m² 6,1 km/h (2 Bft) SW 219 ° 0 min 0 W/m² 12,7 °C 14,3 °C 9,7 km/h (2 Bft)
01.09.2026 06:15 22,5 °C 14,3 °C 60 % 90 % 1016,9 hPa 0,0 l/m² 5,8 km/h (2 Bft) SW 217 ° 0 min 0 W/m² 12,7 °C 14,3 °C 9,7 km/h (2 Bft)
01.09.2026 06:17 22,5 °C 14,3 °C 60 % 90 % 1016,9 hPa 0,0 l/m² 5,2 km/h (1 Bft) SW 220 ° 0 min 0 W/m² 12,7 °C 14,3 °C 8,0 km/h (2 Bft)
01.09.2026 06:19 22,5 °C 14,3 °C 60 % 90 % 1016,9 hPa 0,0 l/m² 6,4 km/h (2 Bft) SW 226 ° 0 min 0 W/m² 12,7 °C 14,3 °C 11,3 km/h (2 Bft)
01.09.2026 06:21 22,5 °C 14,3 °C 60 % 90 % 1016,9 hPa 0,0 l/m² 7,5 km/h (2 Bft) SW 221 ° 0 min 0 W/m² 12,7 °C 13,7 °C 9,7 km/h (2 Bft)
01.09.2026 06:22 22,5 °C 14,3 °C 60 % 90 % 1016,9 hPa 0,0 l/m² 6,1 km/h (2 Bft) SW 229 ° 0 min 0 W/m² 12,7 °C 14,3 °C 8,0 km/h (2 Bft)
01.09.2026 06:23 22,6 °C 14,3 °C 60 % 90 % 1016,9 hPa 0,0 l/m² 6,4 km/h (2 Bft) SW 219 ° 0 min 0 W/m² 12,7 °C 14,3 °C 8,0 km/h (2 Bft)
01.09.2026 06:25 22,5 °C 14,3 °C 60 % 90 % 1016,9 hPa 0,0 l/m² 7,8 km/h (2 Bft) SW 216 ° 0 min 0 W/m² 12,7 °C 13,5 °C 11,3 km/h (2 Bft)
01.09.2026 06:27 22,5 °C 14,3 °C 60 % 90 % 1017,0 hPa 0,0 l/m² 6,8 km/h (2 Bft) SW 224 ° 0 min 5 W/m² 12,7 °C 14,1 °C 11,3 km/h (2 Bft)
01.09.2026 06:29 22,6 °C 14,3 °C 60 % 90 % 1017,0 hPa 0,0 l/m² 6,8 km/h (2 Bft) SW 214 ° 0 min 5 W/m² 12,7 °C 14,1 °C 9,7 km/h (2 Bft)
01.09.2026 06:31 22,5 °C 14,3 °C 60 % 90 % 1017,0 hPa 0,0 l/m² 5,4 km/h (2 Bft) S-SW 200 ° 0 min 7 W/m² 12,7 °C 14,3 °C 8,0 km/h (2 Bft)
01.09.2026 06:32 22,5 °C 14,3 °C 60 % 90 % 1017,0 hPa 0,0 l/m² 4,2 km/h (1 Bft) S-SW 200 ° 0 min 7 W/m² 12,7 °C 14,3 °C 6,4 km/h (2 Bft)
01.09.2026 06:33 22,5 °C 14,3 °C 60 % 90 % 1017,1 hPa 0,0 l/m² 3,9 km/h (1 Bft) S-SW 199 ° 0 min 7 W/m² 12,7 °C 14,3 °C 4,8 km/h (1 Bft)
01.09.2026 06:35 22,6 °C 14,2 °C 60 % 90 % 1017,2 hPa 0,0 l/m² 2,9 km/h (1 Bft) S 190 ° 0 min 7 W/m² 12,6 °C 14,2 °C 8,0 km/h (2 Bft)
01.09.2026 06:37 22,5 °C 14,2 °C 60 % 90 % 1017,1 hPa 0,0 l/m² 5,0 km/h (1 Bft) SW 221 ° 0 min 9 W/m² 12,6 °C 14,2 °C 6,4 km/h (2 Bft)
01.09.2026 06:39 22,5 °C 14,2 °C 60 % 90 % 1017,2 hPa 0,0 l/m² 6,3 km/h (2 Bft) S-SW 198 ° 0 min 11 W/m² 12,6 °C 14,2 °C 9,7 km/h (2 Bft)
01.09.2026 06:41 22,5 °C 14,1 °C 60 % 90 % 1017,2 hPa 0,0 l/m² 6,1 km/h (2 Bft) SW 232 ° 0 min 11 W/m² 12,5 °C 14,1 °C 11,3 km/h (2 Bft)
01.09.2026 06:42 22,5 °C 14,1 °C 60 % 90 % 1017,2 hPa 0,0 l/m² 6,8 km/h (2 Bft) S-SW 209 ° 0 min 11 W/m² 12,5 °C 13,9 °C 9,7 km/h (2 Bft)
01.09.2026 06:43 22,5 °C 14,1 °C 60 % 90 % 1017,2 hPa 0,0 l/m² 6,2 km/h (2 Bft) SW 218 ° 0 min 12 W/m² 12,5 °C 14,1 °C 9,7 km/h (2 Bft)
01.09.2026 06:45 22,5 °C 14,1 °C 59 % 90 % 1017,2 hPa 0,0 l/m² 4,2 km/h (1 Bft) SW 216 ° 0 min 12 W/m² 12,5 °C 14,1 °C 8,0 km/h (2 Bft)
01.09.2026 06:46 22,5 °C 14,1 °C 59 % 90 % 1017,1 hPa 0,0 l/m² 5,3 km/h (1 Bft) SW 232 ° 0 min 12 W/m² 12,5 °C 14,1 °C 6,4 km/h (2 Bft)
01.09.2026 06:48 22,5 °C 14,0 °C 59 % 90 % 1017,2 hPa 0,0 l/m² 5,4 km/h (2 Bft) SW 218 ° 0 min 12 W/m² 12,4 °C 14,0 °C 6,4 km/h (2 Bft)
01.09.2026 06:50 22,4 °C 13,9 °C 59 % 90 % 1017,1 hPa 0,0 l/m² 6,6 km/h (2 Bft) SW 217 ° 0 min 14 W/m² 12,3 °C 13,8 °C 8,0 km/h (2 Bft)
01.09.2026 06:53 22,4 °C 13,9 °C 59 % 90 % 1017,2 hPa 0,0 l/m² 5,0 km/h (1 Bft) SW 220 ° 0 min 16 W/m² 12,3 °C 13,9 °C 8,0 km/h (2 Bft)
01.09.2026 06:55 22,5 °C 13,9 °C 59 % 90 % 1017,3 hPa 0,0 l/m² 4,9 km/h (1 Bft) S 186 ° 0 min 18 W/m² 12,3 °C 13,9 °C 8,0 km/h (2 Bft)
01.09.2026 06:57 22,4 °C 13,9 °C 59 % 90 % 1017,2 hPa 0,0 l/m² 5,5 km/h (2 Bft) SW 217 ° 0 min 18 W/m² 12,3 °C 13,9 °C 9,7 km/h (2 Bft)
01.09.2026 06:59 22,4 °C 13,9 °C 59 % 90 % 1017,3 hPa 0,0 l/m² 6,5 km/h (2 Bft) SW 229 ° 0 min 19 W/m² 12,3 °C 13,9 °C 9,7 km/h (2 Bft)
01.09.2026 07:01 22,4 °C 13,9 °C 59 % 90 % 1017,3 hPa 0,0 l/m² 5,6 km/h (2 Bft) SW 214 ° 0 min 21 W/m² 12,3 °C 13,9 °C 8,0 km/h (2 Bft)
01.09.2026 07:02 22,4 °C 13,9 °C 59 % 90 % 1017,3 hPa 0,0 l/m² 6,8 km/h (2 Bft) S-SW 211 ° 0 min 21 W/m² 12,3 °C 13,7 °C 8,0 km/h (2 Bft)
01.09.2026 07:03 22,4 °C 13,9 °C 59 % 90 % 1017,3 hPa 0,0 l/m² 4,8 km/h (1 Bft) S-SW 201 ° 0 min 21 W/m² 12,3 °C 13,9 °C 6,4 km/h (2 Bft)
01.09.2026 07:05 22,4 °C 14,0 °C 59 % 91 % 1017,3 hPa 0,0 l/m² 8,3 km/h (2 Bft) SW 215 ° 0 min 23 W/m² 12,6 °C 12,9 °C 11,3 km/h (2 Bft)
01.09.2026 07:07 22,4 °C 14,0 °C 59 % 91 % 1017,3 hPa 0,0 l/m² 7,2 km/h (2 Bft) SW 214 ° 0 min 25 W/m² 12,6 °C 13,5 °C 9,7 km/h (2 Bft)
01.09.2026 07:08 22,5 °C 14,1 °C 59 % 91 % 1017,3 hPa 0,0 l/m² 5,6 km/h (2 Bft) SW 224 ° 0 min 25 W/m² 12,7 °C 14,1 °C 8,0 km/h (2 Bft)
01.09.2026 07:09 22,4 °C 14,1 °C 59 % 91 % 1017,3 hPa 0,0 l/m² 6,3 km/h (2 Bft) SW 219 ° 0 min 25 W/m² 12,7 °C 14,1 °C 8,0 km/h (2 Bft)
01.09.2026 07:10 22,4 °C 14,1 °C 59 % 91 % 1017,4 hPa 0,0 l/m² 7,1 km/h (2 Bft) S-SW 206 ° 0 min 25 W/m² 12,7 °C 13,7 °C 9,7 km/h (2 Bft)
01.09.2026 07:12 22,4 °C 14,1 °C 59 % 91 % 1017,4 hPa 0,0 l/m² 5,8 km/h (2 Bft) S-SW 203 ° 0 min 26 W/m² 12,7 °C 14,1 °C 8,0 km/h (2 Bft)
01.09.2026 07:13 22,4 °C 14,1 °C 59 % 91 % 1017,4 hPa 0,0 l/m² 5,7 km/h (2 Bft) S-SW 211 ° 0 min 26 W/m² 12,7 °C 14,1 °C 6,4 km/h (2 Bft)
01.09.2026 07:14 22,4 °C 14,1 °C 59 % 91 % 1017,5 hPa 0,0 l/m² 4,7 km/h (1 Bft) S-SW 205 ° 0 min 28 W/m² 12,7 °C 14,1 °C 6,4 km/h (2 Bft)
01.09.2026 07:15 22,4 °C 14,1 °C 59 % 91 % 1017,4 hPa 0,0 l/m² 4,4 km/h (1 Bft) S-SW 202 ° 0 min 28 W/m² 12,7 °C 14,1 °C 6,4 km/h (2 Bft)
01.09.2026 07:16 22,4 °C 14,1 °C 59 % 91 % 1017,4 hPa 0,0 l/m² 7,5 km/h (2 Bft) SW 214 ° 0 min 28 W/m² 12,7 °C 13,4 °C 9,7 km/h (2 Bft)
01.09.2026 07:18 22,4 °C 14,2 °C 59 % 91 % 1017,5 hPa 0,0 l/m² 6,5 km/h (2 Bft) S-SW 200 ° 0 min 30 W/m² 12,8 °C 14,2 °C 8,0 km/h (2 Bft)
01.09.2026 07:19 22,4 °C 14,2 °C 59 % 91 % 1017,5 hPa 0,0 l/m² 6,0 km/h (2 Bft) S-SW 207 ° 0 min 32 W/m² 12,8 °C 14,2 °C 8,0 km/h (2 Bft)
01.09.2026 07:21 22,4 °C 14,2 °C 59 % 91 % 1017,5 hPa 0,0 l/m² 5,7 km/h (2 Bft) SW 217 ° 0 min 33 W/m² 12,8 °C 14,2 °C 9,7 km/h (2 Bft)
01.09.2026 07:23 22,4 °C 14,2 °C 59 % 91 % 1017,5 hPa 0,0 l/m² 5,9 km/h (2 Bft) S-SW 205 ° 0 min 33 W/m² 12,8 °C 14,2 °C 11,3 km/h (2 Bft)
01.09.2026 07:24 22,4 °C 14,2 °C 59 % 91 % 1017,4 hPa 0,0 l/m² 5,4 km/h (2 Bft) SW 219 ° 0 min 51 W/m² 12,8 °C 14,2 °C 9,7 km/h (2 Bft)
01.09.2026 07:25 22,4 °C 14,2 °C 59 % 91 % 1017,5 hPa 0,0 l/m² 7,1 km/h (2 Bft) SW 222 ° 1 min 63 W/m² 12,8 °C 13,8 °C 9,7 km/h (2 Bft)
01.09.2026 07:26 22,4 °C 14,2 °C 59 % 91 % 1017,4 hPa 0,0 l/m² 6,4 km/h (2 Bft) SW 216 ° 1 min 56 W/m² 12,8 °C 14,2 °C 9,7 km/h (2 Bft)
01.09.2026 07:27 22,4 °C 14,3 °C 59 % 91 % 1017,5 hPa 0,0 l/m² 7,6 km/h (2 Bft) SW 230 ° 0 min 44 W/m² 12,8 °C 13,6 °C 11,3 km/h (2 Bft)
01.09.2026 07:28 22,4 °C 14,3 °C 59 % 91 % 1017,5 hPa 0,0 l/m² 7,3 km/h (2 Bft) SW 228 ° 0 min 51 W/m² 12,8 °C 13,8 °C 9,7 km/h (2 Bft)
01.09.2026 07:29 22,4 °C 14,3 °C 59 % 91 % 1017,5 hPa 0,0 l/m² 8,5 km/h (2 Bft) SW 214 ° 1 min 65 W/m² 12,8 °C 13,1 °C 11,3 km/h (2 Bft)
01.09.2026 07:31 22,4 °C 14,4 °C 59 % 91 % 1017,5 hPa 0,0 l/m² 9,1 km/h (2 Bft) SW 227 ° 2 min 77 W/m² 12,9 °C 12,9 °C 12,9 km/h (3 Bft)
01.09.2026 07:33 22,4 °C 14,4 °C 59 % 91 % 1017,6 hPa 0,0 l/m² 7,4 km/h (2 Bft) S-SW 213 ° 2 min 81 W/m² 12,9 °C 13,8 °C 9,7 km/h (2 Bft)
01.09.2026 07:34 22,4 °C 14,5 °C 59 % 91 % 1017,5 hPa 0,0 l/m² 7,6 km/h (2 Bft) W-NW 285 ° 1 min 83 W/m² 13,0 °C 13,8 °C 11,3 km/h (2 Bft)
01.09.2026 07:35 22,4 °C 14,6 °C 59 % 91 % 1017,6 hPa 0,0 l/m² 6,4 km/h (2 Bft) SW 224 ° 1 min 86 W/m² 13,1 °C 14,6 °C 9,7 km/h (2 Bft)
01.09.2026 07:36 22,4 °C 14,6 °C 59 % 91 % 1017,6 hPa 0,0 l/m² 9,7 km/h (2 Bft) S-SW 208 ° 1 min 86 W/m² 13,1 °C 12,8 °C 11,3 km/h (2 Bft)
01.09.2026 07:37 22,4 °C 14,6 °C 59 % 90 % 1017,7 hPa 0,0 l/m² 6,9 km/h (2 Bft) SW 219 ° 1 min 90 W/m² 13,0 °C 14,3 °C 9,7 km/h (2 Bft)
01.09.2026 07:38 22,4 °C 14,6 °C 59 % 90 % 1017,6 hPa 0,0 l/m² 8,1 km/h (2 Bft) SW 217 ° 1 min 91 W/m² 13,0 °C 13,6 °C 9,7 km/h (2 Bft)
01.09.2026 07:39 22,4 °C 14,7 °C 59 % 90 % 1017,6 hPa 0,0 l/m² 7,9 km/h (2 Bft) SW 217 ° 1 min 93 W/m² 13,1 °C 13,8 °C 9,7 km/h (2 Bft)
01.09.2026 07:41 22,4 °C 14,7 °C 59 % 90 % 1017,6 hPa 0,0 l/m² 7,6 km/h (2 Bft) S-SW 211 ° 2 min 100 W/m² 13,1 °C 14,0 °C 11,3 km/h (2 Bft)
01.09.2026 07:43 22,4 °C 14,8 °C 59 % 90 % 1017,6 hPa 0,0 l/m² 9,7 km/h (2 Bft) S-SW 207 ° 2 min 104 W/m² 13,2 °C 13,0 °C 14,5 km/h (3 Bft)
01.09.2026 07:44 22,4 °C 14,8 °C 59 % 90 % 1017,7 hPa 0,0 l/m² 9,1 km/h (2 Bft) SW 232 ° 1 min 104 W/m² 13,2 °C 13,3 °C 11,3 km/h (2 Bft)
01.09.2026 07:45 22,4 °C 14,8 °C 59 % 90 % 1017,7 hPa 0,0 l/m² 8,7 km/h (2 Bft) S-SW 207 ° 1 min 105 W/m² 13,2 °C 13,5 °C 11,3 km/h (2 Bft)
01.09.2026 07:46 22,4 °C 14,9 °C 59 % 90 % 1017,7 hPa 0,0 l/m² 10,1 km/h (2 Bft) S-SW 213 ° 1 min 105 W/m² 13,3 °C 13,0 °C 16,1 km/h (3 Bft)
01.09.2026 07:47 22,4 °C 14,9 °C 59 % 90 % 1017,7 hPa 0,0 l/m² 10,5 km/h (2 Bft) SW 220 ° 1 min 111 W/m² 13,3 °C 12,8 °C 14,5 km/h (3 Bft)
01.09.2026 07:48 22,4 °C 14,9 °C 59 % 90 % 1017,7 hPa 0,0 l/m² 11,5 km/h (2 Bft) S-SW 209 ° 1 min 113 W/m² 13,3 °C 12,4 °C 17,7 km/h (3 Bft)
01.09.2026 07:49 22,4 °C 14,9 °C 59 % 89 % 1017,7 hPa 0,0 l/m² 8,4 km/h (2 Bft) S-SW 198 ° 1 min 114 W/m² 13,1 °C 13,8 °C 11,3 km/h (2 Bft)
01.09.2026 07:51 22,4 °C 15,1 °C 59 % 90 % 1017,7 hPa 0,0 l/m² 11,2 km/h (2 Bft) S-SW 202 ° 2 min 120 W/m² 13,5 °C 12,7 °C 16,1 km/h (3 Bft)
01.09.2026 07:53 22,4 °C 15,1 °C 59 % 89 % 1017,7 hPa 0,0 l/m² 10,4 km/h (2 Bft) S 188 ° 2 min 128 W/m² 13,3 °C 13,1 °C 14,5 km/h (3 Bft)
01.09.2026 07:54 22,4 °C 15,2 °C 59 % 89 % 1017,7 hPa 0,0 l/m² 10,6 km/h (2 Bft) S-SW 202 ° 1 min 132 W/m² 13,4 °C 13,1 °C 14,5 km/h (3 Bft)
01.09.2026 07:55 22,4 °C 15,2 °C 59 % 89 % 1017,8 hPa 0,0 l/m² 10,2 km/h (2 Bft) S-SW 208 ° 1 min 137 W/m² 13,4 °C 13,2 °C 12,9 km/h (3 Bft)
01.09.2026 07:56 22,4 °C 15,3 °C 59 % 89 % 1017,8 hPa 0,0 l/m² 12,7 km/h (3 Bft) S-SW 201 ° 1 min 141 W/m² 13,5 °C 12,4 °C 16,1 km/h (3 Bft)
01.09.2026 07:57 22,4 °C 15,3 °C 59 % 89 % 1017,8 hPa 0,0 l/m² 10,8 km/h (2 Bft) S-SW 207 ° 1 min 146 W/m² 13,5 °C 13,1 °C 12,9 km/h (3 Bft)
01.09.2026 07:58 22,4 °C 15,3 °C 59 % 89 % 1017,8 hPa 0,0 l/m² 10,8 km/h (2 Bft) S-SW 211 ° 1 min 149 W/m² 13,5 °C 13,1 °C 12,9 km/h (3 Bft)
01.09.2026 07:59 22,4 °C 15,3 °C 59 % 89 % 1017,7 hPa 0,0 l/m² 10,1 km/h (2 Bft) SW 224 ° 1 min 160 W/m² 13,5 °C 13,4 °C 12,9 km/h (3 Bft)
01.09.2026 08:00 22,4 °C 15,4 °C 59 % 89 % 1017,8 hPa 0,0 l/m² 11,1 km/h (2 Bft) S-SW 192 ° 1 min 163 W/m² 13,6 °C 13,1 °C 14,5 km/h (3 Bft)
01.09.2026 08:02 22,4 °C 15,4 °C 59 % 89 % 1017,8 hPa 0,0 l/m² 10,0 km/h (2 Bft) S-SW 212 ° 2 min 172 W/m² 13,6 °C 13,6 °C 12,9 km/h (3 Bft)
01.09.2026 08:03 22,4 °C 15,6 °C 59 % 89 % 1017,8 hPa 0,0 l/m² 8,6 km/h (2 Bft) SW 220 ° 1 min 176 W/m² 13,8 °C 14,4 °C 9,7 km/h (2 Bft)
01.09.2026 08:04 22,4 °C 15,6 °C 59 % 89 % 1017,8 hPa 0,0 l/m² 9,2 km/h (2 Bft) SW 235 ° 1 min 181 W/m² 13,8 °C 14,1 °C 12,9 km/h (3 Bft)
01.09.2026 08:05 22,4 °C 15,7 °C 59 % 89 % 1017,7 hPa 0,0 l/m² 8,7 km/h (2 Bft) S-SW 200 ° 1 min 188 W/m² 13,9 °C 14,5 °C 11,3 km/h (2 Bft)
01.09.2026 08:06 22,4 °C 15,7 °C 59 % 89 % 1017,7 hPa 0,0 l/m² 9,8 km/h (2 Bft) W-SW 238 ° 1 min 192 W/m² 13,9 °C 14,0 °C 12,9 km/h (3 Bft)
01.09.2026 08:07 22,4 °C 15,8 °C 59 % 89 % 1017,8 hPa 0,0 l/m² 10,0 km/h (2 Bft) SW 218 ° 1 min 195 W/m² 14,0 °C 14,0 °C 16,1 km/h (3 Bft)
01.09.2026 08:08 22,4 °C 15,8 °C 59 % 88 % 1017,8 hPa 0,0 l/m² 9,9 km/h (2 Bft) SW 224 ° 1 min 199 W/m² 13,8 °C 14,0 °C 11,3 km/h (2 Bft)
01.09.2026 08:09 22,4 °C 15,9 °C 59 % 88 % 1017,8 hPa 0,0 l/m² 6,6 km/h (2 Bft) S-SW 198 ° 1 min 204 W/m² 13,9 °C 15,8 °C 8,0 km/h (2 Bft)
01.09.2026 08:11 22,4 °C 16,1 °C 59 % 88 % 1017,7 hPa 0,0 l/m² 8,9 km/h (2 Bft) SW 217 ° 2 min 214 W/m² 14,1 °C 14,8 °C 12,9 km/h (3 Bft)
01.09.2026 08:13 22,4 °C 16,1 °C 59 % 87 % 1017,7 hPa 0,0 l/m² 10,0 km/h (2 Bft) SW 229 ° 2 min 221 W/m² 13,9 °C 14,3 °C 14,5 km/h (3 Bft)
01.09.2026 08:14 22,4 °C 16,2 °C 59 % 87 % 1017,8 hPa 0,0 l/m² 7,5 km/h (2 Bft) SW 215 ° 1 min 223 W/m² 14,0 °C 15,6 °C 9,7 km/h (2 Bft)
01.09.2026 08:15 22,4 °C 16,2 °C 59 % 87 % 1017,7 hPa 0,0 l/m² 7,3 km/h (2 Bft) W-SW 246 ° 1 min 225 W/m² 14,0 °C 15,7 °C 8,0 km/h (2 Bft)
01.09.2026 08:16 22,4 °C 16,3 °C 59 % 87 % 1017,7 hPa 0,0 l/m² 10,2 km/h (2 Bft) SW 219 ° 1 min 230 W/m² 14,1 °C 14,5 °C 12,9 km/h (3 Bft)
01.09.2026 08:17 22,4 °C 16,3 °C 59 % 87 % 1017,8 hPa 0,0 l/m² 12,8 km/h (3 Bft) SW 226 ° 1 min 232 W/m² 14,1 °C 13,5 °C 16,1 km/h (3 Bft)
01.09.2026 08:18 22,4 °C 16,3 °C 59 % 87 % 1017,7 hPa 0,0 l/m² 15,4 km/h (3 Bft) SW 216 ° 1 min 234 W/m² 14,1 °C 12,6 °C 17,7 km/h (3 Bft)
01.09.2026 08:19 22,4 °C 16,3 °C 59 % 86 % 1017,8 hPa 0,0 l/m² 15,6 km/h (3 Bft) SW 223 ° 1 min 237 W/m² 14,0 °C 12,6 °C 20,9 km/h (4 Bft)
01.09.2026 08:21 22,4 °C 16,3 °C 59 % 86 % 1017,8 hPa 0,0 l/m² 17,7 km/h (3 Bft) SW 219 ° 2 min 241 W/m² 14,0 °C 12,0 °C 22,5 km/h (4 Bft)
01.09.2026 08:23 22,4 °C 16,4 °C 59 % 86 % 1017,8 hPa 0,0 l/m² 15,3 km/h (3 Bft) W 259 ° 2 min 248 W/m² 14,1 °C 12,8 °C 22,5 km/h (4 Bft)
01.09.2026 08:24 22,4 °C 16,4 °C 59 % 86 % 1017,8 hPa 0,0 l/m² 10,2 km/h (2 Bft) SW 228 ° 1 min 251 W/m² 14,1 °C 14,6 °C 14,5 km/h (3 Bft)
01.09.2026 08:25 22,4 °C 16,5 °C 59 % 86 % 1017,8 hPa 0,0 l/m² 13,1 km/h (3 Bft) SW 234 ° 1 min 251 W/m² 14,1 °C 13,6 °C 17,7 km/h (3 Bft)
01.09.2026 08:26 22,4 °C 16,6 °C 59 % 86 % 1017,8 hPa 0,0 l/m² 13,6 km/h (3 Bft) SW 224 ° 1 min 255 W/m² 14,2 °C 13,6 °C 17,7 km/h (3 Bft)
01.09.2026 08:27 22,4 °C 16,6 °C 59 % 86 % 1017,9 hPa 0,0 l/m² 10,9 km/h (2 Bft) W-SW 239 ° 1 min 258 W/m² 14,2 °C 14,5 °C 14,5 km/h (3 Bft)
01.09.2026 08:28 22,4 °C 16,7 °C 59 % 86 % 1017,8 hPa 0,0 l/m² 10,9 km/h (2 Bft) SW 214 ° 1 min 264 W/m² 14,3 °C 14,6 °C 17,7 km/h (3 Bft)
01.09.2026 08:29 22,4 °C 16,7 °C 59 % 85 % 1017,8 hPa 0,0 l/m² 15,4 km/h (3 Bft) SW 219 ° 1 min 267 W/m² 14,2 °C 13,1 °C 17,7 km/h (3 Bft)
01.09.2026 08:31 22,4 °C 16,7 °C 59 % 85 % 1017,7 hPa 0,0 l/m² 15,6 km/h (3 Bft) SW 234 ° 2 min 272 W/m² 14,2 °C 13,1 °C 19,3 km/h (3 Bft)
01.09.2026 08:33 22,4 °C 16,8 °C 59 % 85 % 1017,8 hPa 0,0 l/m² 15,4 km/h (3 Bft) W-SW 248 ° 2 min 278 W/m² 14,3 °C 13,3 °C 22,5 km/h (4 Bft)
01.09.2026 08:34 22,4 °C 16,8 °C 59 % 85 % 1017,9 hPa 0,0 l/m² 14,0 km/h (3 Bft) S-SW 213 ° 1 min 285 W/m² 14,3 °C 13,7 °C 17,7 km/h (3 Bft)
01.09.2026 08:35 22,4 °C 16,9 °C 59 % 85 % 1017,8 hPa 0,0 l/m² 14,3 km/h (3 Bft) SW 232 ° 1 min 287 W/m² 14,4 °C 13,7 °C 19,3 km/h (3 Bft)
01.09.2026 08:36 22,4 °C 16,9 °C 59 % 85 % 1017,8 hPa 0,0 l/m² 15,3 km/h (3 Bft) SW 217 ° 1 min 290 W/m² 14,4 °C 13,4 °C 19,3 km/h (3 Bft)
01.09.2026 08:37 22,5 °C 17,0 °C 59 % 84 % 1017,8 hPa 0,0 l/m² 16,4 km/h (3 Bft) SW 218 ° 1 min 290 W/m² 14,3 °C 13,2 °C 17,7 km/h (3 Bft)
01.09.2026 08:38 22,5 °C 17,0 °C 59 % 84 % 1017,8 hPa 0,0 l/m² 10,6 km/h (2 Bft) W-SW 238 ° 1 min 294 W/m² 14,3 °C 15,1 °C 19,3 km/h (3 Bft)
01.09.2026 08:39 22,5 °C 17,1 °C 59 % 84 % 1017,8 hPa 0,0 l/m² 10,3 km/h (2 Bft) S-SW 209 ° 1 min 295 W/m² 14,4 °C 15,3 °C 16,1 km/h (3 Bft)
01.09.2026 08:41 22,5 °C 17,2 °C 59 % 84 % 1017,8 hPa 0,0 l/m² 14,0 km/h (3 Bft) SW 214 ° 2 min 302 W/m² 14,5 °C 14,2 °C 19,3 km/h (3 Bft)
01.09.2026 08:43 22,5 °C 17,2 °C 59 % 84 % 1017,9 hPa 0,0 l/m² 15,4 km/h (3 Bft) SW 225 ° 2 min 309 W/m² 14,5 °C 13,7 °C 24,1 km/h (4 Bft)
01.09.2026 08:44 22,5 °C 17,2 °C 59 % 83 % 1017,9 hPa 0,0 l/m² 19,2 km/h (3 Bft) SW 217 ° 1 min 313 W/m² 14,3 °C 12,8 °C 27,4 km/h (5 Bft)
01.09.2026 08:45 22,5 °C 17,2 °C 59 % 84 % 1017,9 hPa 0,0 l/m² 16,4 km/h (3 Bft) W-SW 237 ° 1 min 313 W/m² 14,5 °C 13,5 °C 20,9 km/h (4 Bft)
01.09.2026 08:47 22,5 °C 17,3 °C 59 % 84 % 1017,9 hPa 0,0 l/m² 13,9 km/h (3 Bft) SW 219 ° 2 min 322 W/m² 14,6 °C 14,3 °C 19,3 km/h (3 Bft)
01.09.2026 08:48 22,5 °C 17,3 °C 59 % 83 % 1017,9 hPa 0,0 l/m² 12,7 km/h (3 Bft) W-SW 244 ° 1 min 325 W/m² 14,4 °C 14,7 °C 16,1 km/h (3 Bft)
01.09.2026 08:49 22,5 °C 17,3 °C 59 % 83 % 1017,9 hPa 0,0 l/m² 17,0 km/h (3 Bft) SW 232 ° 1 min 329 W/m² 14,4 °C 13,4 °C 24,1 km/h (4 Bft)
01.09.2026 08:51 22,5 °C 17,4 °C 59 % 83 % 1018,0 hPa 0,0 l/m² 14,3 km/h (3 Bft) W-SW 243 ° 2 min 334 W/m² 14,5 °C 14,3 °C 22,5 km/h (4 Bft)
01.09.2026 08:53 22,5 °C 17,6 °C 59 % 84 % 1018,0 hPa 0,0 l/m² 12,9 km/h (3 Bft) W 279 ° 2 min 343 W/m² 14,9 °C 15,0 °C 22,5 km/h (4 Bft)
01.09.2026 08:54 22,5 °C 17,6 °C 59 % 83 % 1018,0 hPa 0,0 l/m² 15,8 km/h (3 Bft) W 264 ° 1 min 346 W/m² 14,7 °C 14,1 °C 25,7 km/h (4 Bft)
01.09.2026 08:55 22,6 °C 17,6 °C 59 % 82 % 1018,0 hPa 0,0 l/m² 17,8 km/h (3 Bft) W-SW 238 ° 1 min 348 W/m² 14,5 °C 13,6 °C 20,9 km/h (4 Bft)
01.09.2026 08:56 22,5 °C 17,6 °C 59 % 83 % 1017,9 hPa 0,0 l/m² 10,9 km/h (2 Bft) W-SW 244 ° 1 min 346 W/m² 14,7 °C 15,7 °C 16,1 km/h (3 Bft)
01.09.2026 08:57 22,6 °C 17,6 °C 59 % 83 % 1018,0 hPa 0,0 l/m² 17,5 km/h (3 Bft) W-SW 237 ° 1 min 352 W/m² 14,7 °C 13,7 °C 22,5 km/h (4 Bft)
01.09.2026 08:58 22,6 °C 17,6 °C 59 % 82 % 1018,1 hPa 0,0 l/m² 17,9 km/h (3 Bft) SW 229 ° 1 min 357 W/m² 14,5 °C 13,6 °C 22,5 km/h (4 Bft)
01.09.2026 08:59 22,6 °C 17,7 °C 59 % 82 % 1018,0 hPa 0,0 l/m² 16,0 km/h (3 Bft) SW 217 ° 1 min 360 W/m² 14,6 °C 14,2 °C 22,5 km/h (4 Bft)
01.09.2026 09:01 22,5 °C 17,7 °C 59 % 82 % 1018,0 hPa 0,0 l/m² 16,5 km/h (3 Bft) SW 231 ° 2 min 366 W/m² 14,6 °C 14,1 °C 24,1 km/h (4 Bft)
01.09.2026 09:03 22,6 °C 17,7 °C 59 % 82 % 1018,1 hPa 0,0 l/m² 15,9 km/h (3 Bft) SW 218 ° 2 min 338 W/m² 14,6 °C 14,2 °C 22,5 km/h (4 Bft)
01.09.2026 09:04 22,6 °C 17,7 °C 59 % 82 % 1018,1 hPa 0,0 l/m² 11,7 km/h (2 Bft) W-SW 254 ° 1 min 339 W/m² 14,6 °C 15,5 °C 16,1 km/h (3 Bft)
01.09.2026 09:05 22,5 °C 17,8 °C 59 % 82 % 1018,1 hPa 0,0 l/m² 10,2 km/h (2 Bft) W 260 ° 1 min 345 W/m² 14,7 °C 16,1 °C 14,5 km/h (3 Bft)
01.09.2026 09:06 22,6 °C 17,8 °C 59 % 82 % 1018,1 hPa 0,0 l/m² 15,4 km/h (3 Bft) SW 215 ° 1 min 366 W/m² 14,7 °C 14,5 °C 19,3 km/h (3 Bft)
01.09.2026 09:07 22,6 °C 17,9 °C 59 % 82 % 1018,1 hPa 0,0 l/m² 11,1 km/h (2 Bft) SW 229 ° 1 min 373 W/m² 14,8 °C 15,9 °C 16,1 km/h (3 Bft)
01.09.2026 09:08 22,6 °C 17,9 °C 59 % 82 % 1018,2 hPa 0,0 l/m² 19,2 km/h (3 Bft) W-SW 240 ° 1 min 355 W/m² 14,8 °C 13,7 °C 22,5 km/h (4 Bft)
01.09.2026 09:09 22,6 °C 17,9 °C 59 % 82 % 1018,2 hPa 0,0 l/m² 15,9 km/h (3 Bft) W-SW 255 ° 1 min 341 W/m² 14,8 °C 14,5 °C 19,3 km/h (3 Bft)
01.09.2026 09:11 22,6 °C 17,9 °C 59 % 81 % 1018,2 hPa 0,0 l/m² 18,7 km/h (3 Bft) SW 234 ° 2 min 350 W/m² 14,6 °C 13,8 °C 24,1 km/h (4 Bft)
01.09.2026 09:13 22,6 °C 17,9 °C 59 % 81 % 1018,2 hPa 0,0 l/m² 17,7 km/h (3 Bft) SW 232 ° 2 min 360 W/m² 14,6 °C 14,0 °C 24,1 km/h (4 Bft)
01.09.2026 09:14 22,6 °C 18,0 °C 59 % 82 % 1018,2 hPa 0,0 l/m² 14,8 km/h (3 Bft) SW 225 ° 1 min 359 W/m² 14,9 °C 14,9 °C 17,7 km/h (3 Bft)
01.09.2026 09:15 22,6 °C 18,1 °C 59 % 82 % 1018,2 hPa 0,0 l/m² 17,2 km/h (3 Bft) SW 225 ° 1 min 397 W/m² 15,0 °C 14,4 °C 22,5 km/h (4 Bft)
01.09.2026 09:16 22,6 °C 18,1 °C 59 % 81 % 1018,2 hPa 0,0 l/m² 16,5 km/h (3 Bft) W-SW 248 ° 1 min 396 W/m² 14,8 °C 14,6 °C 22,5 km/h (4 Bft)
01.09.2026 09:17 22,6 °C 18,2 °C 59 % 82 % 1018,2 hPa 0,0 l/m² 19,5 km/h (3 Bft) SW 218 ° 1 min 381 W/m² 15,1 °C 14,0 °C 27,4 km/h (5 Bft)
01.09.2026 09:18 22,6 °C 18,2 °C 59 % 81 % 1018,1 hPa 0,0 l/m² 20,8 km/h (4 Bft) SW 215 ° 1 min 403 W/m² 14,9 °C 13,7 °C 24,1 km/h (4 Bft)
01.09.2026 09:19 22,6 °C 18,2 °C 59 % 80 % 1018,1 hPa 0,0 l/m² 23,3 km/h (4 Bft) W-SW 257 ° 1 min 353 W/m² 14,7 °C 13,2 °C 30,6 km/h (5 Bft)
01.09.2026 09:21 22,6 °C 18,1 °C 59 % 80 % 1018,2 hPa 0,0 l/m² 17,1 km/h (3 Bft) SW 234 ° 2 min 422 W/m² 14,6 °C 14,4 °C 20,9 km/h (4 Bft)
01.09.2026 09:23 22,6 °C 18,2 °C 59 % 81 % 1018,2 hPa 0,0 l/m² 16,5 km/h (3 Bft) SW 218 ° 2 min 425 W/m² 14,9 °C 14,7 °C 24,1 km/h (4 Bft)
01.09.2026 09:24 22,6 °C 18,3 °C 59 % 82 % 1018,2 hPa 0,0 l/m² 17,8 km/h (3 Bft) SW 231 ° 1 min 427 W/m² 15,2 °C 14,5 °C 22,5 km/h (4 Bft)
01.09.2026 09:25 22,6 °C 18,4 °C 59 % 81 % 1018,2 hPa 0,0 l/m² 15,8 km/h (3 Bft) SW 236 ° 1 min 438 W/m² 15,1 °C 15,1 °C 20,9 km/h (4 Bft)
01.09.2026 09:26 22,6 °C 18,5 °C 59 % 80 % 1018,2 hPa 0,0 l/m² 18,6 km/h (3 Bft) SW 217 ° 1 min 450 W/m² 15,0 °C 14,6 °C 25,7 km/h (4 Bft)
01.09.2026 09:27 22,6 °C 18,4 °C 59 % 80 % 1018,1 hPa 0,0 l/m² 23,0 km/h (4 Bft) W-SW 238 ° 1 min 462 W/m² 14,9 °C 13,6 °C 32,2 km/h (5 Bft)
01.09.2026 09:28 22,6 °C 18,4 °C 59 % 79 % 1018,3 hPa 0,0 l/m² 24,8 km/h (4 Bft) SW 235 ° 1 min 469 W/m² 14,7 °C 13,2 °C 29,0 km/h (5 Bft)
01.09.2026 09:29 22,6 °C 18,4 °C 59 % 79 % 1018,2 hPa 0,0 l/m² 17,9 km/h (3 Bft) SW 227 ° 1 min 475 W/m² 14,7 °C 14,6 °C 22,5 km/h (4 Bft)
01.09.2026 09:31 22,6 °C 18,6 °C 59 % 81 % 1018,3 hPa 0,0 l/m² 18,8 km/h (3 Bft) W-SW 240 ° 2 min 461 W/m² 15,3 °C 14,6 °C 25,7 km/h (4 Bft)
01.09.2026 09:33 22,6 °C 18,7 °C 59 % 79 % 1018,2 hPa 0,0 l/m² 19,9 km/h (4 Bft) SW 221 ° 2 min 473 W/m² 15,0 °C 14,5 °C 27,4 km/h (5 Bft)
01.09.2026 09:34 22,6 °C 18,7 °C 59 % 79 % 1018,3 hPa 0,0 l/m² 17,3 km/h (3 Bft) SW 218 ° 1 min 492 W/m² 15,0 °C 15,1 °C 22,5 km/h (4 Bft)
01.09.2026 09:35 22,6 °C 18,8 °C 59 % 80 % 1018,2 hPa 0,0 l/m² 16,8 km/h (3 Bft) SW 220 ° 1 min 515 W/m² 15,3 °C 15,4 °C 24,1 km/h (4 Bft)
01.09.2026 09:37 22,6 °C 18,8 °C 59 % 79 % 1018,3 hPa 0,0 l/m² 20,5 km/h (4 Bft) W-SW 252 ° 2 min 519 W/m² 15,1 °C 14,6 °C 27,4 km/h (5 Bft)
01.09.2026 09:38 22,6 °C 18,8 °C 59 % 78 % 1018,3 hPa 0,0 l/m² 20,6 km/h (4 Bft) SW 232 ° 1 min 279 W/m² 14,9 °C 14,5 °C 24,1 km/h (4 Bft)
01.09.2026 09:39 22,6 °C 18,7 °C 59 % 78 % 1018,2 hPa 0,0 l/m² 24,5 km/h (4 Bft) W-SW 244 ° 1 min 288 W/m² 14,8 °C 13,7 °C 29,0 km/h (5 Bft)
01.09.2026 09:41 22,6 °C 18,4 °C 59 % 78 % 1018,2 hPa 0,0 l/m² 22,1 km/h (4 Bft) SW 219 ° 2 min 274 W/m² 14,5 °C 13,7 °C 29,0 km/h (5 Bft)
01.09.2026 09:43 22,6 °C 18,4 °C 59 % 79 % 1018,2 hPa 0,0 l/m² 17,8 km/h (3 Bft) SW 230 ° 2 min 362 W/m² 14,7 °C 14,6 °C 24,1 km/h (4 Bft)
01.09.2026 09:44 22,6 °C 18,4 °C 59 % 79 % 1018,3 hPa 0,0 l/m² 20,4 km/h (4 Bft) W-SW 247 ° 1 min 436 W/m² 14,7 °C 14,1 °C 30,6 km/h (5 Bft)
01.09.2026 09:46 22,6 °C 18,6 °C 59 % 80 % 1018,2 hPa 0,0 l/m² 15,3 km/h (3 Bft) SW 222 ° 2 min 415 W/m² 15,1 °C 15,5 °C 20,9 km/h (4 Bft)
01.09.2026 09:47 22,6 °C 18,7 °C 59 % 80 % 1018,2 hPa 0,0 l/m² 20,7 km/h (4 Bft) SW 235 ° 1 min 403 W/m² 15,2 °C 14,4 °C 25,7 km/h (4 Bft)
01.09.2026 09:48 22,6 °C 18,7 °C 59 % 79 % 1018,2 hPa 0,0 l/m² 26,3 km/h (4 Bft) SW 228 ° 1 min 334 W/m² 15,0 °C 13,4 °C 29,0 km/h (5 Bft)
01.09.2026 09:49 22,6 °C 18,7 °C 59 % 79 % 1018,2 hPa 0,0 l/m² 17,0 km/h (3 Bft) SW 223 ° 1 min 343 W/m² 15,0 °C 15,2 °C 24,1 km/h (4 Bft)
01.09.2026 09:51 22,6 °C 18,7 °C 59 % 79 % 1018,2 hPa 0,0 l/m² 18,6 km/h (3 Bft) SW 216 ° 2 min 476 W/m² 15,0 °C 14,8 °C 25,7 km/h (4 Bft)
01.09.2026 09:53 22,6 °C 18,9 °C 59 % 79 % 1018,2 hPa 0,0 l/m² 15,1 km/h (3 Bft) W-SW 237 ° 2 min 425 W/m² 15,2 °C 15,9 °C 22,5 km/h (4 Bft)
01.09.2026 09:54 22,6 °C 18,9 °C 59 % 80 % 1018,2 hPa 0,0 l/m² 15,3 km/h (3 Bft) W 266 ° 1 min 487 W/m² 15,4 °C 15,8 °C 20,9 km/h (4 Bft)
01.09.2026 09:55 22,6 °C 19,1 °C 59 % 79 % 1018,3 hPa 0,0 l/m² 18,9 km/h (3 Bft) SW 227 ° 1 min 480 W/m² 15,4 °C 15,3 °C 24,1 km/h (4 Bft)
01.09.2026 09:56 22,6 °C 19,0 °C 59 % 78 % 1018,3 hPa 0,0 l/m² 21,2 km/h (4 Bft) SW 228 ° 1 min 452 W/m² 15,1 °C 14,7 °C 27,4 km/h (5 Bft)
01.09.2026 09:57 22,6 °C 19,0 °C 59 % 79 % 1018,3 hPa 0,0 l/m² 15,5 km/h (3 Bft) W-SW 240 ° 1 min 399 W/m² 15,3 °C 15,9 °C 19,3 km/h (3 Bft)
01.09.2026 09:58 22,6 °C 19,1 °C 59 % 79 % 1018,3 hPa 0,0 l/m² 13,5 km/h (3 Bft) SW 228 ° 1 min 346 W/m² 15,4 °C 16,6 °C 19,3 km/h (3 Bft)
01.09.2026 09:59 22,6 °C 19,1 °C 59 % 78 % 1018,3 hPa 0,0 l/m² 15,0 km/h (3 Bft) W-SW 245 ° 1 min 367 W/m² 15,2 °C 16,2 °C 19,3 km/h (3 Bft)
01.09.2026 10:01 22,6 °C 19,1 °C 59 % 78 % 1018,4 hPa 0,0 l/m² 18,9 km/h (3 Bft) SW 225 ° 2 min 295 W/m² 15,2 °C 15,3 °C 25,7 km/h (4 Bft)
01.09.2026 10:03 22,6 °C 19,0 °C 59 % 79 % 1018,3 hPa 0,0 l/m² 17,9 km/h (3 Bft) W-SW 244 ° 2 min 376 W/m² 15,3 °C 15,4 °C 24,1 km/h (4 Bft)
01.09.2026 10:04 22,6 °C 19,0 °C 59 % 78 % 1018,3 hPa 0,0 l/m² 17,6 km/h (3 Bft) W-SW 251 ° 1 min 376 W/m² 15,1 °C 15,4 °C 22,5 km/h (4 Bft)
01.09.2026 10:05 22,6 °C 19,1 °C 59 % 79 % 1018,4 hPa 0,0 l/m² 17,0 km/h (3 Bft) SW 234 ° 1 min 608 W/m² 15,4 °C 15,7 °C 24,1 km/h (4 Bft)
01.09.2026 10:07 22,6 °C 19,3 °C 59 % 78 % 1018,3 hPa 0,0 l/m² 18,2 km/h (3 Bft) W-SW 242 ° 2 min 325 W/m² 15,4 °C 15,7 °C 25,7 km/h (4 Bft)
01.09.2026 10:08 22,6 °C 19,3 °C 59 % 78 % 1018,3 hPa 0,0 l/m² 18,7 km/h (3 Bft) SW 229 ° 1 min 313 W/m² 15,4 °C 15,6 °C 25,7 km/h (4 Bft)
01.09.2026 10:09 22,7 °C 19,2 °C 59 % 78 % 1018,4 hPa 0,0 l/m² 21,3 km/h (4 Bft) W-SW 246 ° 1 min 297 W/m² 15,3 °C 14,9 °C 32,2 km/h (5 Bft)
01.09.2026 10:11 22,6 °C 19,2 °C 59 % 78 % 1018,3 hPa 0,0 l/m² 20,6 km/h (4 Bft) SW 229 ° 2 min 559 W/m² 15,3 °C 15,1 °C 27,4 km/h (5 Bft)
01.09.2026 10:13 22,6 °C 19,3 °C 59 % 78 % 1018,4 hPa 0,0 l/m² 20,8 km/h (4 Bft) W-NW 291 ° 2 min 468 W/m² 15,4 °C 15,1 °C 29,0 km/h (5 Bft)
01.09.2026 10:14 22,7 °C 19,3 °C 59 % 78 % 1018,4 hPa 0,0 l/m² 20,2 km/h (4 Bft) W-SW 242 ° 1 min 438 W/m² 15,4 °C 15,3 °C 25,7 km/h (4 Bft)
01.09.2026 10:15 22,6 °C 19,3 °C 59 % 78 % 1018,3 hPa 0,0 l/m² 22,4 km/h (4 Bft) W-SW 257 ° 1 min 385 W/m² 15,4 °C 14,9 °C 27,4 km/h (5 Bft)
01.09.2026 10:17 22,6 °C 19,2 °C 59 % 78 % 1018,3 hPa 0,0 l/m² 18,3 km/h (3 Bft) SW 236 ° 2 min 311 W/m² 15,3 °C 15,5 °C 30,6 km/h (5 Bft)
01.09.2026 10:18 22,6 °C 19,2 °C 59 % 78 % 1018,3 hPa 0,0 l/m² 24,6 km/h (4 Bft) W-SW 237 ° 1 min 288 W/m² 15,3 °C 14,4 °C 33,8 km/h (5 Bft)
01.09.2026 10:19 22,6 °C 19,2 °C 59 % 78 % 1018,3 hPa 0,0 l/m² 19,2 km/h (3 Bft) SW 220 ° 1 min 279 W/m² 15,3 °C 15,3 °C 24,1 km/h (4 Bft)
01.09.2026 10:21 22,7 °C 19,1 °C 59 % 78 % 1018,3 hPa 0,0 l/m² 23,3 km/h (4 Bft) W-SW 246 ° 2 min 264 W/m² 15,2 °C 14,4 °C 30,6 km/h (5 Bft)
01.09.2026 10:23 22,6 °C 19,1 °C 59 % 78 % 1018,3 hPa 0,0 l/m² 18,6 km/h (3 Bft) SW 236 ° 2 min 251 W/m² 15,2 °C 15,3 °C 27,4 km/h (5 Bft)
01.09.2026 10:24 22,6 °C 19,0 °C 59 % 78 % 1018,4 hPa 0,0 l/m² 23,8 km/h (4 Bft) W-SW 251 ° 1 min 223 W/m² 15,1 °C 14,2 °C 32,2 km/h (5 Bft)
01.09.2026 10:25 22,6 °C 19,0 °C 59 % 78 % 1018,3 hPa 0,0 l/m² 21,1 km/h (4 Bft) SW 228 ° 1 min 232 W/m² 15,1 °C 14,7 °C 29,0 km/h (5 Bft)
01.09.2026 10:26 22,6 °C 19,0 °C 59 % 79 % 1018,4 hPa 0,0 l/m² 21,5 km/h (4 Bft) SW 222 ° 1 min 248 W/m² 15,3 °C 14,6 °C 30,6 km/h (5 Bft)
01.09.2026 10:27 22,6 °C 18,9 °C 59 % 78 % 1018,5 hPa 0,0 l/m² 23,2 km/h (4 Bft) W-SW 242 ° 1 min 260 W/m² 15,0 °C 14,2 °C 29,0 km/h (5 Bft)
01.09.2026 10:28 22,7 °C 18,9 °C 59 % 78 % 1018,4 hPa 0,0 l/m² 27,7 km/h (5 Bft) W-SW 248 ° 1 min 264 W/m² 15,0 °C 13,5 °C 33,8 km/h (5 Bft)
01.09.2026 10:29 22,6 °C 18,9 °C 59 % 78 % 1018,4 hPa 0,0 l/m² 23,7 km/h (4 Bft) W-SW 250 ° 1 min 264 W/m² 15,0 °C 14,1 °C 27,4 km/h (5 Bft)
01.09.2026 10:31 22,6 °C 18,9 °C 59 % 78 % 1018,4 hPa 0,0 l/m² 23,9 km/h (4 Bft) W-SW 255 ° 2 min 265 W/m² 15,0 °C 14,1 °C 30,6 km/h (5 Bft)
01.09.2026 10:33 22,6 °C 18,9 °C 59 % 78 % 1018,4 hPa 0,0 l/m² 19,2 km/h (3 Bft) W-SW 242 ° 2 min 272 W/m² 15,0 °C 14,9 °C 25,7 km/h (4 Bft)
01.09.2026 10:34 22,6 °C 19,0 °C 59 % 78 % 1018,5 hPa 0,0 l/m² 21,3 km/h (4 Bft) W-SW 246 ° 1 min 272 W/m² 15,1 °C 14,7 °C 25,7 km/h (4 Bft)
01.09.2026 10:35 22,6 °C 19,1 °C 59 % 78 % 1018,5 hPa 0,0 l/m² 16,5 km/h (3 Bft) SW 227 ° 1 min 274 W/m² 15,2 °C 15,8 °C 25,7 km/h (4 Bft)
01.09.2026 10:36 22,6 °C 19,1 °C 59 % 78 % 1018,6 hPa 0,0 l/m² 20,9 km/h (4 Bft) SW 236 ° 1 min 276 W/m² 15,2 °C 14,9 °C 24,1 km/h (4 Bft)
01.09.2026 10:37 22,6 °C 19,1 °C 59 % 77 % 1018,5 hPa 0,0 l/m² 19,4 km/h (3 Bft) SW 223 ° 1 min 287 W/m² 15,0 °C 15,2 °C 24,1 km/h (4 Bft)
01.09.2026 10:38 22,6 °C 19,2 °C 59 % 78 % 1018,5 hPa 0,0 l/m² 15,8 km/h (3 Bft) SW 225 ° 1 min 292 W/m² 15,3 °C 16,1 °C 22,5 km/h (4 Bft)
01.09.2026 10:39 22,6 °C 19,2 °C 59 % 78 % 1018,6 hPa 0,0 l/m² 21,3 km/h (4 Bft) SW 226 ° 1 min 295 W/m² 15,3 °C 14,9 °C 24,1 km/h (4 Bft)
01.09.2026 10:41 22,6 °C 19,2 °C 59 % 77 % 1018,5 hPa 0,0 l/m² 23,0 km/h (4 Bft) SW 230 ° 2 min 308 W/m² 15,1 °C 14,6 °C 32,2 km/h (5 Bft)
01.09.2026 10:43 22,6 °C 19,3 °C 59 % 78 % 1018,5 hPa 0,0 l/m² 17,6 km/h (3 Bft) W-SW 244 ° 2 min 306 W/m² 15,4 °C 15,8 °C 22,5 km/h (4 Bft)
01.09.2026 10:44 22,6 °C 19,3 °C 59 % 78 % 1018,5 hPa 0,0 l/m² 20,6 km/h (4 Bft) SW 229 ° 1 min 308 W/m² 15,4 °C 15,2 °C 25,7 km/h (4 Bft)
01.09.2026 10:45 22,6 °C 19,3 °C 59 % 77 % 1018,5 hPa 0,0 l/m² 20,2 km/h (4 Bft) SW 223 ° 1 min 315 W/m² 15,2 °C 15,3 °C 22,5 km/h (4 Bft)
01.09.2026 10:46 22,6 °C 19,3 °C 59 % 77 % 1018,5 hPa 0,0 l/m² 19,2 km/h (3 Bft) W-SW 242 ° 1 min 323 W/m² 15,2 °C 15,5 °C 24,1 km/h (4 Bft)
01.09.2026 10:47 22,6 °C 19,3 °C 59 % 77 % 1018,5 hPa 0,0 l/m² 17,6 km/h (3 Bft) W-SW 241 ° 1 min 334 W/m² 15,2 °C 15,8 °C 24,1 km/h (4 Bft)
01.09.2026 10:48 22,6 °C 19,3 °C 59 % 77 % 1018,5 hPa 0,0 l/m² 20,7 km/h (4 Bft) W 261 ° 1 min 353 W/m² 15,2 °C 15,2 °C 25,7 km/h (4 Bft)
01.09.2026 10:49 22,6 °C 19,4 °C 59 % 77 % 1018,5 hPa 0,0 l/m² 20,0 km/h (4 Bft) W-SW 242 ° 1 min 394 W/m² 15,3 °C 15,4 °C 30,6 km/h (5 Bft)
01.09.2026 10:51 22,6 °C 19,6 °C 59 % 77 % 1018,5 hPa 0,0 l/m² 18,8 km/h (3 Bft) SW 221 ° 2 min 403 W/m² 15,5 °C 15,9 °C 24,1 km/h (4 Bft)
01.09.2026 10:53 22,6 °C 19,8 °C 59 % 77 % 1018,5 hPa 0,0 l/m² 21,3 km/h (4 Bft) SW 224 ° 2 min 403 W/m² 15,6 °C 15,7 °C 29,0 km/h (5 Bft)
01.09.2026 10:54 22,6 °C 19,8 °C 59 % 76 % 1018,5 hPa 0,0 l/m² 16,7 km/h (3 Bft) W-SW 239 ° 1 min 394 W/m² 15,4 °C 16,6 °C 25,7 km/h (4 Bft)
01.09.2026 10:55 22,6 °C 19,9 °C 59 % 76 % 1018,5 hPa 0,0 l/m² 17,9 km/h (3 Bft) SW 232 ° 1 min 392 W/m² 15,5 °C 16,5 °C 20,9 km/h (4 Bft)
01.09.2026 10:56 22,6 °C 19,9 °C 59 % 76 % 1018,5 hPa 0,0 l/m² 18,7 km/h (3 Bft) SW 232 ° 1 min 392 W/m² 15,5 °C 16,3 °C 24,1 km/h (4 Bft)
01.09.2026 10:57 22,6 °C 19,9 °C 58 % 75 % 1018,5 hPa 0,0 l/m² 17,6 km/h (3 Bft) SW 226 ° 1 min 392 W/m² 15,3 °C 16,5 °C 22,5 km/h (4 Bft)
01.09.2026 10:58 22,6 °C 20,1 °C 59 % 76 % 1018,5 hPa 0,0 l/m² 16,3 km/h (3 Bft) SW 234 ° 1 min 469 W/m² 15,7 °C 17,1 °C 22,5 km/h (4 Bft)
01.09.2026 10:59 22,6 °C 20,1 °C 59 % 76 % 1018,5 hPa 0,0 l/m² 15,3 km/h (3 Bft) W-SW 238 ° 1 min 459 W/m² 15,7 °C 17,3 °C 17,7 km/h (3 Bft)
01.09.2026 11:01 22,6 °C 20,3 °C 59 % 75 % 1018,5 hPa 0,0 l/m² 18,1 km/h (3 Bft) SW 225 ° 2 min 519 W/m² 15,7 °C 17,0 °C 25,7 km/h (4 Bft)
01.09.2026 11:03 22,6 °C 20,4 °C 59 % 75 % 1018,5 hPa 0,0 l/m² 18,5 km/h (3 Bft) S-SW 213 ° 2 min 589 W/m² 15,8 °C 17,0 °C 25,7 km/h (4 Bft)
01.09.2026 11:04 22,6 °C 20,6 °C 59 % 75 % 1018,5 hPa 0,0 l/m² 18,2 km/h (3 Bft) W-SW 238 ° 1 min 589 W/m² 16,0 °C 17,3 °C 25,7 km/h (4 Bft)
01.09.2026 11:05 22,6 °C 20,7 °C 59 % 73 % 1018,6 hPa 0,0 l/m² 18,8 km/h (3 Bft) W-SW 240 ° 1 min 448 W/m² 15,7 °C 17,3 °C 25,7 km/h (4 Bft)
01.09.2026 11:06 22,6 °C 20,6 °C 59 % 73 % 1018,6 hPa 0,0 l/m² 19,2 km/h (3 Bft) SW 228 ° 1 min 434 W/m² 15,6 °C 17,1 °C 29,0 km/h (5 Bft)
01.09.2026 11:07 22,6 °C 20,6 °C 58 % 74 % 1018,6 hPa 0,0 l/m² 17,9 km/h (3 Bft) W-SW 248 ° 1 min 369 W/m² 15,8 °C 17,4 °C 24,1 km/h (4 Bft)
01.09.2026 11:08 22,6 °C 20,5 °C 58 % 74 % 1018,6 hPa 0,0 l/m² 16,7 km/h (3 Bft) SW 225 ° 1 min 441 W/m² 15,7 °C 17,5 °C 20,9 km/h (4 Bft)
01.09.2026 11:09 22,7 °C 20,6 °C 58 % 75 % 1018,6 hPa 0,0 l/m² 21,3 km/h (4 Bft) W 277 ° 1 min 441 W/m² 16,0 °C 16,8 °C 25,7 km/h (4 Bft)
01.09.2026 11:11 22,6 °C 20,6 °C 58 % 73 % 1018,6 hPa 0,0 l/m² 19,9 km/h (4 Bft) SW 233 ° 2 min 577 W/m² 15,6 °C 17,0 °C 25,7 km/h (4 Bft)
01.09.2026 11:13 22,6 °C 20,5 °C 58 % 74 % 1018,6 hPa 0,0 l/m² 15,9 km/h (3 Bft) W-SW 240 ° 2 min 496 W/m² 15,7 °C 17,7 °C 22,5 km/h (4 Bft)
01.09.2026 11:14 22,7 °C 20,4 °C 58 % 73 % 1018,6 hPa 0,0 l/m² 23,8 km/h (4 Bft) W-SW 245 ° 1 min 316 W/m² 15,4 °C 16,1 °C 32,2 km/h (5 Bft)
01.09.2026 11:15 22,6 °C 20,3 °C 58 % 73 % 1018,6 hPa 0,0 l/m² 18,0 km/h (3 Bft) W-SW 238 ° 1 min 316 W/m² 15,3 °C 17,0 °C 22,5 km/h (4 Bft)
01.09.2026 11:17 22,6 °C 20,4 °C 59 % 75 % 1018,6 hPa 0,0 l/m² 18,9 km/h (3 Bft) SW 234 ° 2 min 364 W/m² 15,8 °C 16,9 °C 25,7 km/h (4 Bft)
01.09.2026 11:18 22,6 °C 20,6 °C 59 % 74 % 1018,6 hPa 0,0 l/m² 18,1 km/h (3 Bft) W-SW 240 ° 1 min 364 W/m² 15,8 °C 17,3 °C 25,7 km/h (4 Bft)
01.09.2026 11:19 22,6 °C 20,7 °C 58 % 73 % 1018,6 hPa 0,0 l/m² 19,7 km/h (3 Bft) SW 229 ° 1 min 364 W/m² 15,7 °C 17,2 °C 29,0 km/h (5 Bft)
01.09.2026 11:21 22,6 °C 20,7 °C 59 % 73 % 1018,6 hPa 0,0 l/m² 21,0 km/h (4 Bft) SW 234 ° 2 min 364 W/m² 15,7 °C 16,9 °C 27,4 km/h (5 Bft)
01.09.2026 11:23 22,7 °C 20,6 °C 59 % 73 % 1018,5 hPa 0,0 l/m² 17,5 km/h (3 Bft) W 259 ° 2 min 364 W/m² 15,6 °C 17,4 °C 24,1 km/h (4 Bft)
01.09.2026 11:24 22,6 °C 20,7 °C 58 % 73 % 1018,5 hPa 0,0 l/m² 20,7 km/h (4 Bft) W 262 ° 1 min 686 W/m² 15,7 °C 17,0 °C 29,0 km/h (5 Bft)
01.09.2026 11:25 22,7 °C 20,8 °C 58 % 72 % 1018,6 hPa 0,0 l/m² 19,7 km/h (3 Bft) W-SW 250 ° 1 min 705 W/m² 15,6 °C 17,3 °C 29,0 km/h (5 Bft)
01.09.2026 11:26 22,7 °C 20,8 °C 58 % 72 % 1018,6 hPa 0,0 l/m² 23,2 km/h (4 Bft) W-SW 242 ° 1 min 712 W/m² 15,6 °C 16,7 °C 25,7 km/h (4 Bft)
01.09.2026 11:27 22,6 °C 20,9 °C 59 % 72 % 1018,6 hPa 0,0 l/m² 19,4 km/h (3 Bft) SW 236 ° 1 min 712 W/m² 15,7 °C 17,5 °C 22,5 km/h (4 Bft)
01.09.2026 11:28 22,7 °C 20,8 °C 58 % 71 % 1018,5 hPa 0,0 l/m² 16,9 km/h (3 Bft) W-SW 257 ° 1 min 712 W/m² 15,3 °C 17,8 °C 22,5 km/h (4 Bft)
01.09.2026 11:29 22,6 °C 20,9 °C 58 % 71 % 1018,5 hPa 0,0 l/m² 15,8 km/h (3 Bft) SW 231 ° 1 min 712 W/m² 15,4 °C 18,2 °C 22,5 km/h (4 Bft)
01.09.2026 11:31 22,7 °C 21,1 °C 58 % 73 % 1018,5 hPa 0,0 l/m² 15,9 km/h (3 Bft) W-SW 242 ° 2 min 705 W/m² 16,1 °C 18,4 °C 25,7 km/h (4 Bft)
01.09.2026 11:33 22,6 °C 21,0 °C 58 % 71 % 1018,5 hPa 0,0 l/m² 18,7 km/h (3 Bft) SW 231 ° 2 min 221 W/m² 15,5 °C 17,7 °C 25,7 km/h (4 Bft)
01.09.2026 11:34 22,6 °C 21,2 °C 58 % 73 % 1018,6 hPa 0,0 l/m² 14,9 km/h (3 Bft) SW 225 ° 1 min 221 W/m² 16,2 °C 18,7 °C 22,5 km/h (4 Bft)
01.09.2026 11:35 22,6 °C 21,4 °C 58 % 73 % 1018,6 hPa 0,0 l/m² 19,1 km/h (3 Bft) W 279 ° 1 min 682 W/m² 16,4 °C 18,2 °C 24,1 km/h (4 Bft)
01.09.2026 11:36 22,6 °C 21,6 °C 58 % 71 % 1018,5 hPa 0,0 l/m² 20,2 km/h (4 Bft) SW 221 ° 1 min 629 W/m² 16,1 °C 18,2 °C 25,7 km/h (4 Bft)
01.09.2026 11:37 22,7 °C 21,6 °C 58 % 70 % 1018,6 hPa 0,0 l/m² 19,1 km/h (3 Bft) W-SW 243 ° 1 min 629 W/m² 15,9 °C 18,4 °C 27,4 km/h (5 Bft)
01.09.2026 11:38 22,6 °C 21,6 °C 58 % 69 % 1018,6 hPa 0,0 l/m² 22,6 km/h (4 Bft) W-SW 248 ° 1 min 721 W/m² 15,7 °C 17,9 °C 27,4 km/h (5 Bft)
01.09.2026 11:39 22,7 °C 21,5 °C 58 % 70 % 1018,6 hPa 0,2 l/m² 21,6 km/h (4 Bft) SW 228 ° 1 min 721 W/m² 15,8 °C 17,9 °C 25,7 km/h (4 Bft)
01.09.2026 11:41 22,7 °C 21,3 °C 58 % 70 % 1018,6 hPa 0,0 l/m² 19,2 km/h (3 Bft) SW 229 ° 2 min 721 W/m² 15,6 °C 18,0 °C 27,4 km/h (5 Bft)
01.09.2026 11:43 22,7 °C 21,2 °C 58 % 70 % 1018,5 hPa 0,0 l/m² 26,0 km/h (4 Bft) SW 232 ° 2 min 316 W/m² 15,5 °C 16,9 °C 32,2 km/h (5 Bft)
01.09.2026 11:44 22,7 °C 21,2 °C 58 % 71 % 1018,6 hPa 0,0 l/m² 19,7 km/h (3 Bft) W 259 ° 1 min 316 W/m² 15,7 °C 17,8 °C 29,0 km/h (5 Bft)
01.09.2026 11:45 22,6 °C 21,3 °C 59 % 70 % 1018,7 hPa 0,0 l/m² 20,0 km/h (4 Bft) W-SW 239 ° 1 min 793 W/m² 15,6 °C 17,9 °C 30,6 km/h (5 Bft)
01.09.2026 11:46 22,7 °C 21,4 °C 58 % 70 % 1018,7 hPa 0,0 l/m² 22,2 km/h (4 Bft) SW 230 ° 1 min 879 W/m² 15,7 °C 17,7 °C 33,8 km/h (5 Bft)
01.09.2026 11:47 22,7 °C 21,3 °C 58 % 69 % 1018,6 hPa 0,0 l/m² 20,6 km/h (4 Bft) W-NW 286 ° 1 min 879 W/m² 15,4 °C 17,8 °C 25,7 km/h (4 Bft)
01.09.2026 11:48 22,7 °C 21,2 °C 58 % 70 % 1018,7 hPa 0,0 l/m² 19,7 km/h (3 Bft) SW 234 ° 1 min 879 W/m² 15,5 °C 17,8 °C 29,0 km/h (5 Bft)
01.09.2026 11:49 22,7 °C 21,2 °C 58 % 70 % 1018,7 hPa 0,0 l/m² 21,3 km/h (4 Bft) W-SW 240 ° 1 min 879 W/m² 15,5 °C 17,5 °C 27,4 km/h (5 Bft)
01.09.2026 11:51 22,7 °C 21,2 °C 58 % 71 % 1018,6 hPa 0,0 l/m² 23,2 km/h (4 Bft) SW 219 ° 2 min 807 W/m² 15,7 °C 17,3 °C 30,6 km/h (5 Bft)
01.09.2026 11:53 22,7 °C 21,2 °C 58 % 71 % 1018,6 hPa 0,0 l/m² 22,3 km/h (4 Bft) SW 214 ° 2 min 418 W/m² 15,7 °C 17,4 °C 29,0 km/h (5 Bft)
01.09.2026 11:54 22,7 °C 21,3 °C 58 % 70 % 1018,6 hPa 0,0 l/m² 18,2 km/h (3 Bft) SW 227 ° 1 min 360 W/m² 15,6 °C 18,2 °C 24,1 km/h (4 Bft)
01.09.2026 11:55 22,7 °C 21,2 °C 58 % 71 % 1018,7 hPa 0,0 l/m² 17,8 km/h (3 Bft) SW 229 ° 1 min 327 W/m² 15,7 °C 18,1 °C 24,1 km/h (4 Bft)
01.09.2026 11:57 22,7 °C 21,1 °C 58 % 70 % 1018,7 hPa 0,0 l/m² 21,1 km/h (4 Bft) S-SW 207 ° 2 min 227 W/m² 15,4 °C 17,4 °C 29,0 km/h (5 Bft)
01.09.2026 11:58 22,7 °C 20,9 °C 58 % 70 % 1018,7 hPa 0,0 l/m² 20,3 km/h (4 Bft) SW 225 ° 1 min 213 W/m² 15,2 °C 17,3 °C 22,5 km/h (4 Bft)
01.09.2026 11:59 22,7 °C 20,8 °C 58 % 71 % 1018,7 hPa 0,0 l/m² 23,5 km/h (4 Bft) S-SW 213 ° 1 min 274 W/m² 15,3 °C 16,7 °C 29,0 km/h (5 Bft)
01.09.2026 12:00 22,7 °C 20,8 °C 58 % 71 % 1018,7 hPa 0,0 l/m² 16,1 km/h (3 Bft) SW 225 ° 1 min 274 W/m² 15,3 °C 18,0 °C 25,7 km/h (4 Bft)
01.09.2026 12:01 22,7 °C 21,1 °C 58 % 74 % 1018,7 hPa 0,0 l/m² 14,5 km/h (3 Bft) SW 225 ° 1 min 274 W/m² 16,3 °C 18,7 °C 20,9 km/h (4 Bft)
01.09.2026 12:09 22,7 °C 21,4 °C 58 % 70 % 1018,6 hPa 0,0 l/m² 24,1 km/h (4 Bft) W-SW 255 ° 8 min 911 W/m² 15,7 °C 17,4 °C 25,7 km/h (4 Bft)
01.09.2026 12:11 22,7 °C 21,5 °C 58 % 69 % 1018,6 hPa 0,0 l/m² 19,3 km/h (3 Bft) W 259 ° 2 min 468 W/m² 15,6 °C 18,3 °C 27,4 km/h (5 Bft)
01.09.2026 12:13 22,6 °C 21,7 °C 58 % 69 % 1018,6 hPa 0,0 l/m² 20,0 km/h (4 Bft) W-SW 240 ° 2 min 468 W/m² 15,8 °C 18,4 °C 25,7 km/h (4 Bft)
01.09.2026 12:14 22,7 °C 21,7 °C 58 % 69 % 1018,7 hPa 0,0 l/m² 20,9 km/h (4 Bft) SW 223 ° 1 min 468 W/m² 15,8 °C 18,3 °C 25,7 km/h (4 Bft)
01.09.2026 12:16 22,6 °C 22,4 °C 58 % 70 % 1018,7 hPa 0,0 l/m² 16,0 km/h (3 Bft) SW 227 ° 2 min 610 W/m² 16,7 °C 20,0 °C 20,9 km/h (4 Bft)
01.09.2026 12:18 22,6 °C 22,7 °C 58 % 68 % 1018,6 hPa 0,0 l/m² 19,7 km/h (3 Bft) W-SW 248 ° 2 min 918 W/m² 16,5 °C 19,7 °C 27,4 km/h (5 Bft)
01.09.2026 12:20 22,7 °C 22,4 °C 58 % 65 % 1018,7 hPa 0,0 l/m² 24,4 km/h (4 Bft) W-SW 240 ° 2 min 309 W/m² 15,5 °C 18,7 °C 30,6 km/h (5 Bft)
01.09.2026 12:22 22,6 °C 22,3 °C 58 % 66 % 1018,6 hPa 0,0 l/m² 19,0 km/h (3 Bft) SW 219 ° 2 min 879 W/m² 15,6 °C 19,3 °C 27,4 km/h (5 Bft)
01.09.2026 12:23 22,6 °C 22,4 °C 58 % 66 % 1018,6 hPa 0,0 l/m² 21,4 km/h (4 Bft) W-SW 242 ° 1 min 902 W/m² 15,7 °C 19,1 °C 25,7 km/h (4 Bft)
01.09.2026 12:24 22,6 °C 22,6 °C 58 % 66 % 1018,7 hPa 0,0 l/m² 17,8 km/h (3 Bft) SW 234 ° 1 min 877 W/m² 15,9 °C 19,9 °C 22,5 km/h (4 Bft)
01.09.2026 12:26 22,7 °C 22,7 °C 58 % 65 % 1018,6 hPa 0,0 l/m² 21,2 km/h (4 Bft) W-SW 255 ° 2 min 339 W/m² 15,8 °C 19,5 °C 27,4 km/h (5 Bft)
01.09.2026 12:28 22,6 °C 22,4 °C 58 % 64 % 1018,7 hPa 0,0 l/m² 23,9 km/h (4 Bft) W 263 ° 2 min 339 W/m² 15,2 °C 18,8 °C 32,2 km/h (5 Bft)
01.09.2026 12:30 22,7 °C 22,2 °C 58 % 66 % 1018,7 hPa 0,0 l/m² 20,1 km/h (4 Bft) SW 236 ° 2 min 216 W/m² 15,5 °C 19,0 °C 27,4 km/h (5 Bft)
01.09.2026 12:32 22,7 °C 22,3 °C 58 % 66 % 1018,5 hPa 0,0 l/m² 25,1 km/h (4 Bft) SW 229 ° 2 min 663 W/m² 15,6 °C 18,5 °C 32,2 km/h (5 Bft)
01.09.2026 12:33 22,7 °C 22,4 °C 58 % 64 % 1018,5 hPa 0,0 l/m² 22,2 km/h (4 Bft) SW 221 ° 1 min 570 W/m² 15,2 °C 19,0 °C 32,2 km/h (5 Bft)
01.09.2026 12:34 22,6 °C 22,5 °C 58 % 65 % 1018,6 hPa 0,0 l/m² 20,7 km/h (4 Bft) W-SW 244 ° 1 min 777 W/m² 15,6 °C 19,3 °C 25,7 km/h (4 Bft)
01.09.2026 12:36 22,6 °C 22,6 °C 58 % 64 % 1018,6 hPa 0,0 l/m² 21,4 km/h (4 Bft) W-SW 239 ° 2 min 777 W/m² 15,4 °C 19,4 °C 33,8 km/h (5 Bft)
01.09.2026 12:38 22,6 °C 22,9 °C 58 % 64 % 1018,6 hPa 0,0 l/m² 20,8 km/h (4 Bft) W-SW 243 ° 2 min 740 W/m² 15,7 °C 19,8 °C 27,4 km/h (5 Bft)
01.09.2026 12:40 22,7 °C 22,8 °C 58 % 64 % 1018,6 hPa 0,0 l/m² 24,9 km/h (4 Bft) W-SW 251 ° 2 min 779 W/m² 15,6 °C 19,2 °C 30,6 km/h (5 Bft)
01.09.2026 12:42 22,7 °C 23,1 °C 58 % 64 % 1018,6 hPa 0,0 l/m² 21,9 km/h (4 Bft) SW 219 ° 2 min 777 W/m² 15,9 °C 20,0 °C 30,6 km/h (5 Bft)
01.09.2026 12:43 22,7 °C 23,2 °C 58 % 64 % 1018,6 hPa 0,0 l/m² 21,3 km/h (4 Bft) W-SW 250 ° 1 min 796 W/m² 16,0 °C 20,2 °C 32,2 km/h (5 Bft)
01.09.2026 12:45 22,7 °C 23,1 °C 58 % 62 % 1018,6 hPa 0,0 l/m² 23,9 km/h (4 Bft) W-SW 252 ° 2 min 765 W/m² 15,4 °C 19,7 °C 32,2 km/h (5 Bft)
01.09.2026 12:46 22,7 °C 23,1 °C 58 % 63 % 1018,7 hPa 0,0 l/m² 16,0 km/h (3 Bft) W-SW 253 ° 1 min 789 W/m² 15,7 °C 20,8 °C 17,7 km/h (3 Bft)
01.09.2026 12:48 22,7 °C 23,2 °C 58 % 63 % 1018,6 hPa 0,0 l/m² 19,5 km/h (3 Bft) SW 215 ° 2 min 789 W/m² 15,8 °C 20,4 °C 25,7 km/h (4 Bft)
01.09.2026 12:50 22,7 °C 23,2 °C 58 % 63 % 1018,6 hPa 0,0 l/m² 19,0 km/h (3 Bft) W-SW 248 ° 2 min 707 W/m² 15,8 °C 20,5 °C 29,0 km/h (5 Bft)
01.09.2026 12:52 22,7 °C 23,3 °C 58 % 63 % 1018,6 hPa 0,0 l/m² 21,1 km/h (4 Bft) W-SW 254 ° 2 min 756 W/m² 15,9 °C 20,3 °C 29,0 km/h (5 Bft)
01.09.2026 12:53 22,7 °C 23,3 °C 58 % 62 % 1018,6 hPa 0,0 l/m² 18,6 km/h (3 Bft) S-SW 199 ° 1 min 756 W/m² 15,6 °C 20,7 °C 24,1 km/h (4 Bft)
01.09.2026 12:54 22,7 °C 23,2 °C 58 % 62 % 1018,7 hPa 0,0 l/m² 15,1 km/h (3 Bft) W-SW 242 ° 1 min 756 W/m² 15,5 °C 21,1 °C 20,9 km/h (4 Bft)
01.09.2026 12:56 22,6 °C 23,4 °C 58 % 63 % 1018,6 hPa 0,0 l/m² 16,4 km/h (3 Bft) SW 229 ° 2 min 900 W/m² 15,9 °C 21,1 °C 24,1 km/h (4 Bft)
01.09.2026 12:58 22,7 °C 23,8 °C 58 % 63 % 1018,6 hPa 0,0 l/m² 16,2 km/h (3 Bft) S-SW 205 ° 2 min 984 W/m² 16,3 °C 21,7 °C 22,5 km/h (4 Bft)
01.09.2026 13:00 22,7 °C 24,1 °C 58 % 60 % 1018,6 hPa 0,0 l/m² 23,4 km/h (4 Bft) S-SW 213 ° 2 min 958 W/m² 15,8 °C 21,1 °C 30,6 km/h (5 Bft)
01.09.2026 13:02 22,7 °C 23,8 °C 58 % 61 % 1018,6 hPa 0,0 l/m² 20,8 km/h (4 Bft) SW 216 ° 2 min 958 W/m² 15,8 °C 21,0 °C 30,6 km/h (5 Bft)
01.09.2026 13:03 22,7 °C 23,8 °C 58 % 61 % 1018,6 hPa 0,0 l/m² 24,6 km/h (4 Bft) SW 221 ° 1 min 909 W/m² 15,8 °C 20,6 °C 32,2 km/h (5 Bft)
01.09.2026 13:05 22,7 °C 23,8 °C 58 % 61 % 1018,5 hPa 0,0 l/m² 22,6 km/h (4 Bft) SW 215 ° 2 min 881 W/m² 15,8 °C 20,8 °C 29,0 km/h (5 Bft)
01.09.2026 13:06 22,7 °C 23,8 °C 58 % 61 % 1018,5 hPa 0,0 l/m² 18,4 km/h (3 Bft) SW 226 ° 1 min 932 W/m² 15,8 °C 21,3 °C 22,5 km/h (4 Bft)
01.09.2026 13:08 22,7 °C 23,8 °C 58 % 61 % 1018,5 hPa 0,0 l/m² 22,9 km/h (4 Bft) S-SW 211 ° 2 min 921 W/m² 15,8 °C 20,8 °C 30,6 km/h (5 Bft)
01.09.2026 13:10 22,7 °C 23,9 °C 58 % 61 % 1018,5 hPa 0,0 l/m² 20,4 km/h (4 Bft) SW 227 ° 2 min 921 W/m² 15,9 °C 21,2 °C 27,4 km/h (5 Bft)
01.09.2026 13:12 22,7 °C 23,8 °C 58 % 61 % 1018,6 hPa 0,0 l/m² 19,2 km/h (3 Bft) SW 228 ° 2 min 856 W/m² 15,8 °C 21,2 °C 24,1 km/h (4 Bft)
01.09.2026 13:13 22,7 °C 23,9 °C 58 % 61 % 1018,5 hPa 0,0 l/m² 18,5 km/h (3 Bft) SW 222 ° 1 min 853 W/m² 15,9 °C 21,4 °C 22,5 km/h (4 Bft)
01.09.2026 13:15 22,7 °C 23,8 °C 58 % 59 % 1018,5 hPa 0,0 l/m² 23,6 km/h (4 Bft) W-SW 245 ° 2 min 870 W/m² 15,3 °C 20,7 °C 30,6 km/h (5 Bft)
01.09.2026 13:16 22,7 °C 23,8 °C 58 % 60 % 1018,4 hPa 0,0 l/m² 19,9 km/h (4 Bft) SW 232 ° 1 min 858 W/m² 15,6 °C 21,1 °C 25,7 km/h (4 Bft)
01.09.2026 13:17 22,7 °C 23,8 °C 58 % 61 % 1018,5 hPa 0,0 l/m² 18,6 km/h (3 Bft) S-SW 205 ° 1 min 849 W/m² 15,8 °C 21,3 °C 25,7 km/h (4 Bft)
01.09.2026 13:18 22,7 °C 24,1 °C 58 % 60 % 1018,5 hPa 0,0 l/m² 15,8 km/h (3 Bft) S-SW 211 ° 1 min 840 W/m² 15,8 °C 22,1 °C 25,7 km/h (4 Bft)
01.09.2026 13:20 22,7 °C 24,3 °C 58 % 59 % 1018,5 hPa 0,0 l/m² 22,6 km/h (4 Bft) SW 234 ° 2 min 826 W/m² 15,8 °C 21,5 °C 33,8 km/h (5 Bft)
01.09.2026 13:22 22,7 °C 24,3 °C 58 % 58 % 1018,5 hPa 0,0 l/m² 23,2 km/h (4 Bft) SW 225 ° 2 min 851 W/m² 15,5 °C 21,4 °C 30,6 km/h (5 Bft)
01.09.2026 13:23 22,7 °C 24,2 °C 58 % 58 % 1018,5 hPa 0,0 l/m² 22,3 km/h (4 Bft) SW 236 ° 1 min 847 W/m² 15,4 °C 21,4 °C 27,4 km/h (5 Bft)
01.09.2026 13:24 22,7 °C 24,2 °C 58 % 59 % 1018,6 hPa 0,0 l/m² 20,0 km/h (4 Bft) SW 223 ° 1 min 851 W/m² 15,7 °C 21,6 °C 25,7 km/h (4 Bft)
01.09.2026 13:26 22,7 °C 24,1 °C 58 % 60 % 1018,5 hPa 0,0 l/m² 17,3 km/h (3 Bft) SW 226 ° 2 min 840 W/m² 15,8 °C 21,9 °C 25,7 km/h (4 Bft)
01.09.2026 13:28 22,7 °C 23,9 °C 58 % 59 % 1018,6 hPa 0,0 l/m² 17,7 km/h (3 Bft) W 263 ° 2 min 172 W/m² 15,4 °C 21,6 °C 24,1 km/h (4 Bft)
01.09.2026 13:30 22,7 °C 23,8 °C 58 % 60 % 1018,5 hPa 0,0 l/m² 15,6 km/h (3 Bft) W 273 ° 2 min 807 W/m² 15,6 °C 21,8 °C 25,7 km/h (4 Bft)
01.09.2026 13:32 22,7 °C 23,7 °C 58 % 57 % 1018,5 hPa 0,0 l/m² 18,2 km/h (3 Bft) W-SW 250 ° 2 min 192 W/m² 14,7 °C 21,2 °C 30,6 km/h (5 Bft)
01.09.2026 13:33 22,7 °C 23,7 °C 58 % 58 % 1018,5 hPa 0,0 l/m² 22,2 km/h (4 Bft) W 271 ° 1 min 802 W/m² 14,9 °C 20,7 °C 29,0 km/h (5 Bft)
01.09.2026 13:35 22,7 °C 23,7 °C 58 % 58 % 1018,5 hPa 0,0 l/m² 22,8 km/h (4 Bft) SW 222 ° 2 min 858 W/m² 14,9 °C 20,6 °C 32,2 km/h (5 Bft)
01.09.2026 13:36 22,6 °C 23,8 °C 58 % 58 % 1018,6 hPa 0,0 l/m² 21,6 km/h (4 Bft) SW 225 ° 1 min 844 W/m² 15,0 °C 20,9 °C 27,4 km/h (5 Bft)
01.09.2026 13:37 22,7 °C 23,9 °C 58 % 57 % 1018,5 hPa 0,0 l/m² 16,5 km/h (3 Bft) W-SW 238 ° 1 min 865 W/m² 14,9 °C 21,7 °C 19,3 km/h (3 Bft)
01.09.2026 13:38 22,7 °C 24,1 °C 58 % 59 % 1018,5 hPa 0,0 l/m² 22,3 km/h (4 Bft) SW 228 ° 1 min 905 W/m² 15,6 °C 21,2 °C 27,4 km/h (5 Bft)
01.09.2026 13:40 22,7 °C 24,3 °C 58 % 58 % 1018,5 hPa 0,0 l/m² 19,6 km/h (3 Bft) W-SW 251 ° 2 min 905 W/m² 15,5 °C 21,8 °C 30,6 km/h (5 Bft)
01.09.2026 13:42 22,7 °C 24,3 °C 58 % 57 % 1018,5 hPa 0,0 l/m² 20,5 km/h (4 Bft) SW 227 ° 2 min 905 W/m² 15,2 °C 21,7 °C 30,6 km/h (5 Bft)
01.09.2026 13:43 22,7 °C 24,3 °C 58 % 58 % 1018,5 hPa 0,0 l/m² 18,3 km/h (3 Bft) SW 219 ° 1 min 905 W/m² 15,5 °C 22,0 °C 24,1 km/h (4 Bft)
01.09.2026 13:44 22,7 °C 24,1 °C 58 % 58 % 1018,5 hPa 0,0 l/m² 17,7 km/h (3 Bft) W-SW 240 ° 1 min 905 W/m² 15,3 °C 21,8 °C 20,9 km/h (4 Bft)
01.09.2026 13:46 22,7 °C 23,7 °C 58 % 58 % 1018,4 hPa 0,0 l/m² 18,7 km/h (3 Bft) SW 221 ° 2 min 373 W/m² 14,9 °C 21,2 °C 29,0 km/h (5 Bft)
01.09.2026 13:48 22,6 °C 23,5 °C 58 % 59 % 1018,5 hPa 0,0 l/m² 15,9 km/h (3 Bft) W-SW 252 ° 2 min 373 W/m² 15,0 °C 21,3 °C 22,5 km/h (4 Bft)
01.09.2026 13:50 22,6 °C 23,4 °C 58 % 58 % 1018,5 hPa 0,0 l/m² 17,7 km/h (3 Bft) SW 216 ° 2 min 373 W/m² 14,7 °C 20,9 °C 32,2 km/h (5 Bft)
01.09.2026 13:52 22,6 °C 23,5 °C 58 % 60 % 1018,5 hPa 0,0 l/m² 22,8 km/h (4 Bft) W-SW 245 ° 2 min 826 W/m² 15,3 °C 20,4 °C 29,0 km/h (5 Bft)
01.09.2026 13:53 22,6 °C 23,6 °C 58 % 59 % 1018,5 hPa 0,0 l/m² 22,2 km/h (4 Bft) SW 228 ° 1 min 826 W/m² 15,1 °C 20,6 °C 29,0 km/h (5 Bft)
01.09.2026 13:54 22,7 °C 23,8 °C 58 % 58 % 1018,5 hPa 0,0 l/m² 19,9 km/h (4 Bft) W-SW 244 ° 1 min 156 W/m² 15,0 °C 21,1 °C 24,1 km/h (4 Bft)
01.09.2026 13:56 22,6 °C 23,7 °C 58 % 60 % 1018,5 hPa 0,0 l/m² 18,8 km/h (3 Bft) W-SW 241 ° 2 min 780 W/m² 15,5 °C 21,1 °C 25,7 km/h (4 Bft)
01.09.2026 13:58 22,7 °C 24,2 °C 58 % 59 % 1018,5 hPa 0,0 l/m² 17,3 km/h (3 Bft) SW 227 ° 2 min 786 W/m² 15,7 °C 22,0 °C 22,5 km/h (4 Bft)
01.09.2026 14:00 22,6 °C 24,6 °C 58 % 58 % 1018,5 hPa 0,0 l/m² 21,9 km/h (4 Bft) W-SW 249 ° 2 min 800 W/m² 15,8 °C 21,9 °C 32,2 km/h (5 Bft)
01.09.2026 14:02 22,7 °C 24,4 °C 58 % 57 % 1018,5 hPa 0,0 l/m² 20,5 km/h (4 Bft) W-SW 244 ° 2 min 803 W/m² 15,3 °C 21,8 °C 27,4 km/h (5 Bft)
01.09.2026 14:03 22,7 °C 24,3 °C 58 % 57 % 1018,5 hPa 0,0 l/m² 21,2 km/h (4 Bft) SW 223 ° 1 min 803 W/m² 15,2 °C 21,6 °C 27,4 km/h (5 Bft)
01.09.2026 14:04 22,7 °C 24,4 °C 58 % 56 % 1018,5 hPa 0,0 l/m² 22,5 km/h (4 Bft) W-SW 257 ° 1 min 807 W/m² 15,0 °C 21,6 °C 30,6 km/h (5 Bft)
01.09.2026 14:06 22,7 °C 24,2 °C 58 % 56 % 1018,5 hPa 0,0 l/m² 21,8 km/h (4 Bft) W 259 ° 2 min 807 W/m² 14,9 °C 21,4 °C 30,6 km/h (5 Bft)
01.09.2026 14:08 22,6 °C 23,7 °C 58 % 56 % 1018,5 hPa 0,0 l/m² 17,0 km/h (3 Bft) W 262 ° 2 min 163 W/m² 14,4 °C 21,4 °C 25,7 km/h (4 Bft)
01.09.2026 14:10 22,7 °C 23,6 °C 58 % 58 % 1018,4 hPa 0,0 l/m² 13,9 km/h (3 Bft) W-SW 237 ° 2 min 163 W/m² 14,8 °C 21,8 °C 19,3 km/h (3 Bft)
01.09.2026 14:12 22,6 °C 23,8 °C 58 % 57 % 1018,5 hPa 0,0 l/m² 18,6 km/h (3 Bft) W 259 ° 2 min 163 W/m² 14,8 °C 21,3 °C 33,8 km/h (5 Bft)
01.09.2026 14:13 22,6 °C 23,7 °C 58 % 57 % 1018,5 hPa 0,0 l/m² 19,0 km/h (3 Bft) W 259 ° 1 min 292 W/m² 14,7 °C 21,1 °C 24,1 km/h (4 Bft)
01.09.2026 14:14 22,6 °C 23,7 °C 58 % 58 % 1018,5 hPa 0,0 l/m² 17,9 km/h (3 Bft) W-SW 248 ° 1 min 455 W/m² 14,9 °C 21,3 °C 20,9 km/h (4 Bft)
01.09.2026 14:15 22,6 °C 23,8 °C 58 % 59 % 1018,4 hPa 0,0 l/m² 17,5 km/h (3 Bft) SW 222 ° 1 min 455 W/m² 15,3 °C 21,5 °C 24,1 km/h (4 Bft)
01.09.2026 14:16 22,7 °C 24,0 °C 58 % 58 % 1018,4 hPa 0,0 l/m² 16,8 km/h (3 Bft) W-SW 246 ° 1 min 387 W/m² 15,2 °C 21,8 °C 22,5 km/h (4 Bft)
01.09.2026 14:17 22,6 °C 23,9 °C 58 % 58 % 1018,4 hPa 0,0 l/m² 16,8 km/h (3 Bft) W-SW 246 ° 1 min 387 W/m² 15,1 °C 21,7 °C 25,7 km/h (4 Bft)
01.09.2026 14:19 22,6 °C 23,8 °C 58 % 57 % 1018,5 hPa 0,0 l/m² 23,4 km/h (4 Bft) SW 215 ° 2 min 257 W/m² 14,8 °C 20,7 °C 30,6 km/h (5 Bft)
01.09.2026 14:21 22,6 °C 24,0 °C 58 % 57 % 1018,4 hPa 0,0 l/m² 19,5 km/h (3 Bft) SW 216 ° 2 min 257 W/m² 14,9 °C 21,4 °C 29,0 km/h (5 Bft)
01.09.2026 14:22 22,6 °C 24,2 °C 58 % 58 % 1018,4 hPa 0,0 l/m² 17,8 km/h (3 Bft) SW 225 ° 1 min 888 W/m² 15,4 °C 21,9 °C 25,7 km/h (4 Bft)
01.09.2026 14:23 22,6 °C 24,3 °C 58 % 56 % 1018,4 hPa 0,0 l/m² 18,4 km/h (3 Bft) SW 234 ° 1 min 888 W/m² 14,9 °C 22,0 °C 22,5 km/h (4 Bft)
01.09.2026 14:25 22,6 °C 24,4 °C 58 % 56 % 1018,4 hPa 0,0 l/m² 17,2 km/h (3 Bft) SW 223 ° 2 min 817 W/m² 15,0 °C 22,3 °C 24,1 km/h (4 Bft)
_ Min-Zeit 08:36 07:03 14:25 14:25 00:19 - 06:35 - - - - 07:03 02:27 06:33
Minimum _ 22,4 °C 13,9 °C 58 % 56 % 1014,9 hPa - 2,9 km/h (1 Bft) - - - - 12,3 °C 10,2 °C 4,8 km/h (1 Bft)
_ Max-Zeit 14:16 14:00 06:43 07:36 12:54 11:39 10:28 - - 12:09 12:58 12:16 14:25 14:12
Maximum _ 22,7 °C 24,6 °C 60 % 91 % 1018,7 hPa 0,2 l/m² 27,7 km/h
W-SW (5 Bft)
- - 8 min 984 W/m² 16,7 °C 22,3 °C 33,8 km/h
W (5 Bft)
Durchschnitt _ 22,6 °C 17,3 °C 59 % 82 % 1017,1 hPa #0,2 l/m² 14,1 km/h (3 Bft) SW - #6:59 h 227 W/m² 13,9 °C 14,7 °C 19,5 km/h (3 Bft)
© 2009 Mathias Hoßbach